GFSNE_500_spd_000.txt.gz
Wind_Speed
27 29 28 29 27 25 23 24 26 27 31 34 32 33 35 39 42 46 45 42 40 44 44 47 48 48 46 45 47 50 52 52 51 50 48 45 40 38
28 31 30 31 30 27 27 23 27 29 30 33 35 36 39 43 48 50 53 51 47 42 45 45 48 51 51 51 49 51 53 56 56 54 53 51 48 44
28 30 31 32 31 25 21 23 27 30 33 36 36 36 40 47 52 53 55 52 45 42 44 50 50 51 54 54 54 53 54 57 59 60 58 56 54 50
31 31 32 32 28 23 30 32 32 34 37 37 38 38 44 49 52 56 54 52 47 46 42 44 48 48 51 54 54 57 57 57 60 62 62 59 58 56
34 33 34 36 35 38 34 30 35 38 39 41 37 42 49 53 55 54 51 51 50 51 48 47 49 50 50 52 56 57 60 60 60 63 63 63 61 59
37 33 33 36 38 35 34 38 46 48 50 42 39 45 51 53 54 51 50 48 51 50 48 46 48 51 53 50 52 57 60 63 62 62 65 65 64 62
38 34 35 35 38 38 36 37 42 42 41 38 45 49 53 54 53 50 45 49 46 45 45 44 45 46 49 51 51 54 58 63 64 64 65 67 66 65
37 41 39 40 41 42 45 45 42 51 42 44 43 53 53 50 50 48 47 48 40 41 40 37 38 41 44 49 57 55 53 59 64 65 66 68 68 67
35 37 38 42 43 38 42 38 41 46 47 44 44 51 50 48 48 47 47 43 39 40 38 35 39 37 46 54 61 55 46 49 59 66 66 67 69 68
40 34 32 28 32 36 36 40 44 45 44 47 50 51 50 50 49 46 42 38 39 38 36 37 42 49 56 57 59 55 51 44 51 59 65 67 68 70
24 29 33 35 40 44 40 42 48 49 48 50 53 52 53 49 48 41 39 38 40 40 39 40 44 49 48 47 52 54 53 48 49 53 60 65 66 68
32 36 40 44 43 46 44 49 53 52 53 54 54 53 48 46 45 42 42 40 39 36 37 42 44 48 30 28 40 43 42 49 47 49 56 61 64 69
41 43 43 43 41 42 47 51 53 55 55 55 49 44 44 44 42 38 36 33 33 32 39 41 44 31 28 23 32 37 38 43 50 52 53 58 60 67
46 40 37 38 41 46 48 53 53 52 49 44 41 40 40 38 36 34 33 31 33 35 36 41 45 25 22 24 22 27 31 39 50 54 56 56 56 61
40 39 41 43 45 46 50 46 46 42 39 37 38 37 36 37 36 36 35 35 34 35 39 41 41 22 21 21 18 25 26 35 39 47 52 52 52 57
41 42 45 44 43 43 38 41 40 37 35 35 34 34 34 35 33 33 32 30 30 31 36 38 40 25 19 17 15 18 27 29 31 38 48 52 54 56
41 45 42 40 38 39 38 38 37 36 35 34 32 33 33 33 34 34 32 29 28 27 28 30 33 24 18 17 15 18 23 23 23 30 36 41 48 55
42 39 39 40 40 39 40 39 37 35 32 33 33 33 33 32 32 32 30 28 27 27 29 31 28 18 22 17 20 21 29 22 34 35 36 40 44 50
40 42 43 44 44 41 40 38 35 34 32 31 31 32 32 31 30 29 28 27 26 25 30 28 26 17 15 24 17 23 33 26 22 26 33 38 43 47
38 38 37 37 37 37 37 34 33 31 30 29 30 29 28 27 28 26 24 24 24 24 27 24 27 21 17 18 25 23 24 26 27 11 31 35 41 46
30 30 31 32 33 32 30 30 29 28 27 26 23 23 24 25 25 23 22 22 21 21 22 21 26 19 15 18 25 29 27 27 24 27 33 34 40 46
31 32 31 30 28 29 28 27 26 23 19 19 19 20 20 21 22 22 21 20 19 20 20 22 22 19 12 8 14 25 29 30 27 29 31 28 39 41
33 32 29 28 26 24 22 21 20 17 17 19 20 21 22 23 23 22 21 20 20 20 19 20 19 25 9 8 8 21 21 24 21 27 27 33 32 48

GFSNE_500_spd_003.txt.gz
Wind_Speed
33 32 33 32 31 31 33 33 34 34 34 34 31 32 29 30 31 33 33 33 43 44 44 43 38 37 43 46 47 46 46 47 48 49 50 48 45 42
35 34 35 35 33 31 34 33 34 35 29 31 31 34 32 33 34 36 40 42 45 48 49 47 47 43 41 47 49 52 50 50 50 51 52 52 51 48
37 37 37 36 36 34 33 32 32 29 33 35 31 32 33 35 37 38 42 43 50 54 56 52 51 45 41 47 54 54 54 53 54 52 55 56 55 54
38 40 39 38 38 38 37 35 35 37 39 34 36 38 39 40 42 43 47 52 56 56 57 52 48 44 44 43 50 55 56 56 56 56 54 57 59 58
40 38 39 37 38 38 39 39 39 42 40 40 42 43 46 49 44 50 53 55 58 56 53 50 45 46 48 49 48 51 49 55 59 59 57 57 60 61
37 41 40 38 35 37 39 40 40 42 44 44 40 44 46 53 56 55 57 55 61 52 47 46 45 46 48 50 49 50 52 52 55 60 60 59 60 62
37 36 41 36 35 39 38 39 43 46 47 49 56 49 53 56 58 56 52 56 53 49 47 46 46 44 44 42 45 47 49 52 57 60 64 62 62 61
28 33 36 31 36 36 42 43 44 43 41 46 43 47 48 57 55 53 54 56 46 46 47 45 47 42 41 40 39 41 46 51 54 60 61 66 65 64
30 31 31 33 37 34 35 34 35 36 44 43 47 49 54 56 58 57 57 51 47 45 46 43 44 41 38 37 39 43 46 50 51 54 59 61 66 68
37 33 32 32 31 32 34 35 37 45 50 49 50 53 57 57 58 58 55 51 45 44 46 44 43 43 42 40 42 47 54 56 55 51 53 58 63 69
35 34 35 32 35 39 41 45 47 49 51 52 54 56 58 61 60 59 52 48 43 42 46 44 44 44 44 40 42 54 65 61 56 50 49 52 57 65
35 37 38 40 46 48 50 51 45 48 50 54 56 58 58 54 51 47 43 42 39 38 37 35 35 41 38 36 47 60 51 47 41 41 47 51 51 60
40 40 43 43 47 48 52 47 49 50 54 57 58 55 50 48 44 43 40 38 38 37 38 35 37 38 43 45 44 37 44 44 42 35 44 54 52 57
43 44 46 45 48 49 48 50 53 55 55 51 47 47 43 40 39 36 36 37 36 37 37 38 39 39 38 42 37 24 34 36 32 31 40 52 55 59
44 45 40 42 47 50 51 52 53 48 45 45 46 42 39 38 37 35 35 34 35 37 37 36 39 37 38 39 30 21 21 26 27 27 37 51 57 60
45 45 44 46 49 49 50 49 45 43 44 43 43 41 38 36 35 35 35 34 35 35 36 36 36 39 39 40 30 23 28 15 17 18 34 46 56 56
44 46 48 47 47 44 42 41 44 45 46 46 43 39 36 36 35 35 36 35 34 34 33 34 36 38 38 41 29 25 19 27 23 22 27 37 47 52
47 46 44 42 42 43 44 42 42 42 41 41 38 36 36 36 35 34 34 33 32 33 33 32 32 33 33 36 34 25 20 21 23 24 27 34 39 46
41 40 39 40 38 38 39 40 39 38 35 34 32 33 35 34 31 29 30 30 30 31 32 32 29 32 33 28 27 29 23 22 29 30 28 31 33 40
38 37 36 35 35 36 37 36 34 32 32 32 32 31 31 27 26 26 27 28 28 29 30 30 29 33 33 30 25 23 29 23 27 33 22 34 30 35
31 30 32 35 36 34 33 33 33 32 32 30 26 24 22 23 24 25 25 25 26 26 27 28 29 31 28 29 26 26 25 25 23 20 30 21 36 34
28 30 29 32 32 31 30 30 30 26 23 21 20 21 22 24 26 27 27 26 25 26 26 24 27 28 26 28 22 19 19 26 25 19 19 16 21 30
25 29 29 28 29 27 27 27 25 23 22 23 23 23 24 25 25 27 27 27 27 26 26 26 25 26 23 30 19 15 7 22 25 23 23 22 21 13

GFSNE_500_spd_006.txt.gz
Wind_Speed
22 25 27 31 37 38 38 37 37 34 33 35 34 33 29 28 30 28 31 32 30 29 32 36 38 40 44 43 42 40 32 42 44 43 42 46 48 47
25 28 35 39 36 36 37 39 40 38 36 36 36 34 31 32 33 34 30 31 35 35 33 33 42 45 48 49 49 50 47 37 43 49 48 47 50 52
33 33 36 38 37 36 37 39 40 40 38 36 35 34 36 35 37 38 37 36 38 40 41 48 51 50 48 51 54 53 49 44 42 52 53 51 52 53
34 36 40 38 37 36 36 38 39 39 40 39 41 43 43 42 42 41 39 42 46 50 48 54 53 58 54 57 58 54 46 43 41 51 60 59 55 55
40 40 39 34 32 34 35 37 40 39 40 44 47 46 45 47 48 44 44 46 52 54 58 58 58 53 53 58 58 50 47 46 47 49 60 59 60 58
37 39 37 34 31 31 34 36 37 37 39 42 35 39 50 51 52 56 57 51 57 53 54 54 53 54 55 53 47 48 49 50 50 54 60 62 58 61
38 36 36 33 33 31 31 32 33 38 44 44 49 46 43 42 42 44 44 48 53 56 57 57 53 55 55 48 44 48 50 47 49 49 55 65 60 57
37 32 34 33 35 31 31 35 34 37 39 34 39 38 42 50 51 51 53 54 54 55 60 55 52 54 46 44 45 46 44 45 49 48 48 58 60 59
36 33 33 33 33 34 39 42 36 38 38 37 44 46 50 52 52 53 57 57 59 56 54 50 44 48 42 43 45 43 43 44 46 47 48 48 54 57
35 32 33 33 31 37 41 40 42 42 44 48 50 52 51 50 54 57 57 60 56 49 44 47 43 40 42 43 45 46 45 47 50 53 53 49 47 50
32 36 31 33 39 42 43 44 47 50 52 53 52 51 51 54 56 59 61 57 49 43 40 41 38 36 39 39 39 39 43 45 50 53 56 55 53 55
38 38 40 40 43 46 48 49 52 55 53 52 54 53 56 58 56 53 48 46 43 38 40 39 37 38 37 40 38 36 40 45 51 56 62 69 61 55
36 37 41 46 46 48 51 55 55 54 53 55 55 55 56 51 47 48 42 38 38 35 37 37 34 35 38 37 32 36 42 45 55 58 48 41 39 43
47 38 49 45 43 46 53 54 52 54 54 54 53 52 48 46 44 43 41 40 39 37 37 38 37 39 38 37 37 31 37 42 57 41 40 37 37 40
41 47 44 43 46 47 50 49 51 52 50 49 46 47 46 45 47 43 41 39 37 38 39 37 38 39 37 39 39 37 36 38 43 32 29 33 31 37
41 44 44 43 43 47 47 48 47 44 44 46 45 45 44 43 42 40 38 38 37 38 38 38 39 38 37 40 40 38 42 39 33 29 37 24 27 28
44 42 44 44 44 44 43 42 40 40 38 41 43 42 40 38 36 35 34 35 36 35 34 35 36 37 37 40 38 40 43 34 29 27 27 37 21 26
38 39 40 41 43 41 37 36 38 38 39 40 39 36 33 33 33 34 32 31 32 32 32 32 33 32 32 36 42 40 45 36 28 25 24 18 19 25
38 37 37 36 33 31 34 35 37 38 37 36 35 35 33 33 32 28 26 27 29 30 31 31 32 32 29 30 34 39 43 32 28 25 22 26 20 26
38 36 32 27 29 29 31 34 35 34 33 33 32 30 27 25 24 23 25 26 29 30 31 31 31 30 30 31 32 34 38 26 21 21 21 25 22 25
32 26 24 25 28 29 29 30 30 30 30 29 26 23 22 22 23 25 27 29 30 30 30 30 30 30 29 30 32 36 34 31 21 18 21 20 21 26
25 26 27 25 27 26 28 28 27 27 27 26 25 25 24 24 26 27 28 31 32 33 32 31 30 30 29 29 30 37 30 26 26 16 17 14 12 21
24 24 26 24 21 24 25 27 26 26 25 25 25 25 23 24 26 28 31 32 32 32 30 28 28 28 28 28 27 32 34 26 19 18 18 16 8 14

GFSNE_500_spd_009.txt.gz
Wind_Speed
26 23 22 24 27 29 30 29 30 31 32 33 33 32 31 29 29 27 28 27 26 29 25 25 26 24 24 23 34 39 39 38 35 33 32 33 40 39
24 27 28 29 29 31 27 27 30 31 33 35 37 37 34 33 32 30 29 30 32 31 33 29 27 29 32 35 37 41 42 39 40 42 41 36 40 40
27 28 31 31 28 28 25 25 28 31 33 34 35 35 39 38 36 36 36 35 35 34 35 32 33 35 39 41 47 48 49 50 47 47 46 45 39 42
33 32 33 36 35 29 26 27 28 29 29 32 33 36 38 39 43 45 45 44 41 42 40 40 41 43 44 49 52 55 55 50 48 49 49 51 48 40
34 36 37 33 35 30 28 31 28 27 27 28 30 34 37 42 44 38 42 48 47 47 50 53 53 52 52 54 52 54 51 49 50 50 52 53 54 48
33 36 40 35 33 32 30 31 34 28 26 31 31 33 37 35 36 32 36 36 33 37 45 47 50 50 55 54 53 52 53 56 57 57 57 54 52 51
38 40 39 36 33 31 30 30 31 33 32 40 35 34 35 34 37 39 41 40 44 48 50 50 52 54 54 55 55 54 51 50 51 55 60 55 51 54
39 42 40 35 33 32 32 33 31 32 35 41 38 39 41 42 44 48 50 50 46 45 48 49 53 55 56 51 46 48 48 48 47 47 49 51 54 54
45 39 36 33 33 32 31 30 35 36 41 40 43 43 46 48 52 54 50 49 49 51 53 51 54 51 43 41 43 44 45 47 48 49 50 50 51 53
44 34 31 33 35 35 35 33 39 44 47 46 46 48 52 54 54 53 52 53 52 51 49 48 44 40 37 38 41 43 45 46 46 46 48 50 53 55
38 34 33 36 36 37 39 41 46 48 50 52 52 54 57 55 53 55 53 51 47 41 42 44 38 35 35 37 39 40 42 45 45 45 45 50 55 56
38 36 34 35 36 42 44 46 49 50 46 50 54 56 55 55 56 54 49 44 43 41 38 37 36 36 33 35 38 40 41 40 42 48 51 49 52 52
37 35 36 39 41 43 42 49 47 48 51 52 54 53 53 53 50 45 45 44 41 40 37 36 37 38 38 37 38 39 39 40 41 44 47 50 54 57
42 40 41 42 43 43 45 48 52 51 49 51 52 51 49 47 45 45 43 41 39 38 36 36 35 38 39 38 39 40 39 40 42 41 45 45 52 56
43 44 44 44 46 48 48 47 48 46 45 45 44 43 42 40 41 42 40 38 36 35 35 36 35 36 38 39 40 38 37 36 40 40 40 42 51 45
45 44 46 46 44 42 42 42 43 42 39 38 38 40 42 42 41 37 34 32 31 33 34 35 33 35 37 38 38 36 36 35 37 39 41 34 41 32
45 46 41 37 38 41 40 40 36 33 33 36 39 40 39 37 36 33 30 30 29 30 30 30 31 33 35 37 36 37 34 32 35 40 36 25 32 29
43 36 35 38 40 39 34 30 29 31 33 36 38 37 34 31 30 29 27 26 26 26 27 28 30 31 33 36 40 35 32 32 34 42 37 23 27 23
33 34 36 36 35 28 27 29 29 30 31 34 35 34 32 28 26 23 22 22 24 26 29 31 32 32 31 31 34 39 29 32 35 33 29 23 21 21
35 34 32 30 26 27 27 29 28 29 30 31 30 30 28 26 26 25 25 26 27 28 31 33 34 34 32 31 31 34 36 34 40 27 23 20 21 21
33 30 27 27 27 27 27 26 26 27 29 30 29 28 28 28 27 27 27 28 30 33 35 34 34 33 32 30 30 30 32 33 43 30 17 18 18 14
29 25 28 29 24 24 24 23 23 25 28 28 29 29 29 29 29 29 31 33 34 34 34 32 30 29 28 27 27 26 27 28 38 29 20 14 16 15
27 26 27 24 22 22 23 23 23 25 27 27 28 29 29 29 29 30 30 30 31 31 30 26 24 25 26 24 23 23 25 28 36 23 18 12 18 12

GFSNE_500_spd_012.txt.gz
Wind_Speed
21 19 20 21 22 22 21 22 23 24 24 24 25 24 25 25 25 26 26 28 28 28 27 26 24 26 26 25 24 24 23 23 24 23 22 24 25 25
22 20 20 24 26 23 20 21 21 20 23 22 24 25 24 23 24 27 29 29 31 32 32 34 32 28 26 26 26 27 29 29 30 35 38 36 37 34
29 27 25 26 28 29 24 21 19 18 20 23 22 23 25 22 21 24 26 32 36 40 40 39 40 39 35 35 35 33 34 34 36 39 44 45 44 45
30 30 32 32 33 31 29 27 26 24 23 22 23 23 24 26 24 24 28 27 31 34 34 41 46 49 52 56 60 54 46 45 43 42 46 47 49 47
34 36 34 35 38 36 31 31 31 28 26 22 21 20 24 25 23 25 27 30 26 29 30 32 32 34 36 40 43 44 46 54 51 49 51 47 46 49
38 40 40 40 41 38 35 33 34 33 31 27 23 23 27 32 34 34 34 34 37 40 40 40 41 44 45 46 45 46 47 49 52 55 57 55 50 49
40 44 43 40 40 37 36 34 33 34 35 32 27 29 34 35 37 39 39 42 40 45 49 48 50 48 45 44 45 47 52 57 60 59 59 59 54 52
41 45 39 37 35 32 31 29 33 35 36 34 34 38 42 42 42 43 46 46 45 47 51 44 48 50 51 52 52 53 52 54 57 56 53 54 57 57
43 43 35 31 31 32 31 31 34 36 39 38 39 43 46 47 48 48 50 51 52 47 51 48 48 50 49 46 45 46 49 47 45 46 48 50 53 54
45 38 32 32 33 31 32 33 34 37 40 41 44 49 51 51 50 50 53 56 51 50 55 54 46 46 43 41 40 41 42 41 42 44 46 49 52 56
42 33 32 31 35 31 33 35 38 43 42 43 47 50 50 54 57 56 53 52 51 48 47 49 45 44 41 36 38 41 40 40 40 42 44 45 47 49
43 37 37 38 38 37 37 37 38 40 41 45 51 55 57 54 53 55 53 50 46 43 44 45 43 41 38 38 39 41 42 41 42 42 44 46 48 48
47 41 40 40 40 41 36 33 36 39 44 52 52 52 52 49 48 46 44 43 41 40 40 39 38 39 39 38 37 39 42 44 45 46 47 49 51 52
43 40 41 42 43 43 38 40 43 47 47 49 49 48 46 43 41 42 43 44 43 41 38 37 35 35 35 35 35 37 41 41 42 44 46 49 50 49
45 45 43 43 43 44 41 38 39 43 45 44 41 38 38 40 42 44 43 42 38 35 33 32 31 31 32 33 34 34 37 35 38 41 44 45 45 47
47 46 44 42 43 39 35 38 43 42 38 35 35 36 37 39 41 41 38 36 33 33 32 32 32 32 31 31 33 35 36 34 35 37 39 39 41 47
46 45 44 42 39 38 40 39 35 29 31 32 33 34 36 37 37 36 32 30 28 26 25 26 29 30 32 35 35 37 36 34 35 34 36 35 38 49
43 43 40 38 36 37 34 30 29 30 31 31 31 32 34 34 34 33 31 30 28 27 27 28 31 32 34 36 41 38 35 36 34 35 39 35 42 47
41 39 39 36 34 32 29 30 28 28 28 27 29 31 32 33 34 34 33 32 31 31 31 32 34 36 36 35 36 42 36 34 34 34 39 39 43 38
39 37 31 30 30 27 29 29 26 25 25 27 29 30 31 33 34 33 33 33 33 34 35 37 37 38 36 34 30 33 37 33 32 32 32 35 36 34
37 33 27 29 28 30 31 26 23 22 24 26 28 29 31 32 33 32 33 34 33 32 33 34 34 35 33 31 29 29 30 33 34 33 35 26 26 29
34 27 27 28 28 29 26 22 21 22 23 26 28 29 31 32 33 33 35 34 33 33 32 33 32 31 31 30 30 26 25 29 34 34 41 28 20 21
29 26 27 28 26 25 23 20 19 21 24 27 29 30 31 32 32 33 35 33 31 30 30 30 31 29 29 28 28 26 25 27 29 30 35 26 25 20

GFSNE_500_spd_015.txt.gz
Wind_Speed
18 17 17 20 21 23 24 19 17 18 18 18 21 19 17 19 21 22 23 23 26 27 28 29 29 29 28 28 28 28 29 29 29 27 25 23 20 20
23 23 20 19 21 23 26 28 25 21 20 19 19 18 20 19 20 21 22 24 25 27 29 32 33 33 33 33 33 33 30 29 29 28 27 26 30 28
22 23 25 26 25 26 28 29 26 27 27 27 25 21 20 18 17 17 17 20 24 30 33 33 35 38 41 45 42 39 39 39 39 35 32 34 33 33
20 25 28 31 31 30 30 30 29 28 28 26 25 23 20 20 19 21 22 23 24 27 27 31 30 33 30 32 43 48 48 50 53 52 54 53 47 37
24 28 31 36 36 31 31 29 30 31 31 24 25 25 25 23 22 25 25 29 31 33 32 29 34 37 37 37 38 39 40 40 41 40 45 46 46 44
24 28 33 37 35 30 31 31 30 32 30 30 27 29 30 29 31 33 33 37 35 36 35 38 39 39 43 45 45 45 46 46 45 48 47 46 45 43
22 29 33 35 31 27 28 30 28 29 30 31 31 32 34 37 39 39 40 43 43 44 44 44 47 46 45 44 44 44 45 45 46 49 48 49 51 50
24 28 31 29 27 28 27 27 30 30 33 36 37 38 38 39 42 46 48 50 47 47 49 48 51 52 52 49 45 46 45 45 46 49 51 53 52 55
24 27 31 30 29 29 30 33 33 35 37 38 37 40 44 46 46 48 49 50 51 54 57 56 53 53 52 50 49 47 44 44 44 45 48 51 53 55
26 30 34 33 33 32 36 37 37 38 40 42 44 45 45 43 46 48 53 57 54 52 52 52 52 49 48 46 45 44 44 44 45 46 47 48 51 54
28 32 37 35 35 35 37 39 41 42 43 42 42 42 45 47 52 57 52 52 49 49 48 47 46 43 42 42 44 46 46 45 44 44 45 45 47 48
31 34 37 37 39 41 42 42 42 43 41 41 46 48 48 52 50 49 46 44 42 43 45 45 45 45 43 43 45 47 47 48 48 48 48 49 50 49
38 39 42 46 47 45 44 43 43 44 42 40 41 44 48 45 41 39 40 41 42 44 46 46 43 42 42 41 39 41 41 43 44 46 47 47 48 50
41 43 47 49 43 44 43 43 44 42 38 40 44 44 38 35 36 35 37 40 43 44 43 41 38 36 35 34 35 34 36 39 40 42 43 46 49 51
43 47 48 45 42 43 42 43 42 38 39 40 36 32 33 33 32 34 37 39 39 38 37 35 34 33 33 33 32 32 33 34 37 37 39 42 45 48
46 52 51 51 40 41 42 42 36 34 34 34 33 32 32 33 34 35 36 37 38 36 36 34 32 30 29 31 32 34 35 35 36 38 38 41 43 45
51 52 51 41 37 37 40 34 31 31 34 33 31 31 31 33 34 35 36 37 37 35 34 35 35 35 35 35 36 39 39 39 39 39 39 39 40 43
45 35 35 37 36 36 34 29 30 32 33 29 28 28 30 31 33 36 36 37 36 36 35 34 34 35 37 40 42 42 40 39 38 38 40 39 36 42
41 39 34 36 35 33 30 28 30 31 29 26 26 28 29 31 32 35 36 36 37 38 37 35 35 35 36 35 34 40 37 35 35 36 38 38 37 40
31 32 32 33 32 29 28 29 28 26 24 23 26 26 29 31 33 34 36 37 38 38 36 36 34 34 36 36 34 33 34 32 34 33 34 34 37 39
36 31 29 30 28 27 28 27 24 23 21 21 23 25 29 31 33 34 35 37 37 36 34 31 33 36 37 36 33 29 31 35 35 35 35 35 31 34
33 31 28 27 26 26 26 24 23 21 20 21 24 27 29 30 32 33 34 36 36 35 31 32 35 38 40 38 33 29 29 30 34 37 40 42 39 18
31 30 28 23 26 27 24 23 23 21 20 23 27 29 29 29 31 31 33 34 34 34 33 33 34 37 39 39 35 30 28 29 29 32 36 41 40 33

GFSNE_500_spd_021.txt.gz
Wind_Speed
13 9 7 8 10 15 19 15 14 14 16 14 14 15 16 18 19 19 19 20 22 24 25 27 28 29 31 32 34 35 35 35 33 33 31 32 33 34
12 11 12 13 14 18 20 17 12 12 13 14 14 16 15 15 16 17 18 20 22 26 28 30 31 32 33 34 34 34 37 39 40 39 36 35 34 37
14 14 14 16 18 18 17 14 11 10 11 13 15 16 16 16 19 23 25 25 27 29 32 33 35 36 36 38 38 36 35 35 37 41 42 44 41 40
18 20 20 25 17 18 13 9 9 10 15 18 17 17 20 21 23 26 28 30 31 34 37 39 40 39 38 40 43 44 44 43 41 40 39 41 39 49
21 25 28 26 12 13 14 11 12 15 16 19 21 20 20 22 24 26 28 31 36 39 40 41 43 45 44 42 42 41 41 44 45 47 46 46 46 44
23 22 21 12 14 16 14 13 14 16 18 21 23 25 26 27 28 28 28 31 35 39 44 47 46 41 43 42 42 43 43 43 45 46 48 51 52 49
21 26 24 16 12 17 16 17 16 18 18 23 25 26 27 28 30 33 36 39 41 45 45 40 49 50 49 47 46 44 44 44 45 46 48 50 51 50
23 22 21 20 15 17 19 23 23 23 23 27 28 26 27 28 31 35 39 41 42 43 44 44 44 44 42 41 41 41 41 41 43 45 48 50 50 50
26 27 26 24 26 23 20 24 26 25 27 29 29 28 28 32 33 35 37 39 41 43 41 37 38 36 37 39 42 44 45 46 47 46 46 46 48 51
28 32 33 34 33 29 28 29 29 29 30 33 31 28 29 32 33 34 35 37 37 36 35 33 35 38 40 43 44 44 45 47 50 50 49 48 47 46
34 36 39 39 39 32 34 33 33 35 35 35 33 31 31 31 32 34 34 34 32 31 31 35 38 40 42 42 43 44 43 44 42 40 39 43 46 46
39 43 44 44 43 45 39 39 36 40 39 34 32 33 33 31 31 33 32 30 29 30 32 35 37 38 39 41 44 44 43 42 38 36 34 33 35 38
47 48 49 51 51 51 38 41 36 41 39 33 32 34 32 32 32 31 28 27 30 30 32 35 38 38 39 41 43 43 41 40 37 36 34 33 33 33
53 55 57 59 62 58 43 41 39 40 37 34 34 33 32 32 31 28 25 27 28 32 34 37 38 38 38 40 41 40 38 37 36 36 37 37 38 38
62 66 69 68 68 62 41 38 36 40 38 36 34 34 33 32 30 26 25 26 28 32 33 35 36 36 37 38 35 35 33 33 35 38 38 38 40 42
61 74 74 66 70 44 29 31 37 33 32 34 35 33 33 31 28 24 24 27 29 32 33 34 34 35 36 36 36 37 37 37 36 35 36 38 41 44
73 80 68 45 50 23 29 31 28 30 33 32 33 32 32 30 26 23 25 27 28 31 33 34 35 36 36 36 38 38 40 40 40 36 33 30 30 34
70 80 41 49 24 26 29 31 29 32 32 32 31 31 30 30 25 25 26 26 28 31 32 33 35 37 37 36 38 39 40 42 40 37 35 31 28 33
75 53 47 36 24 28 29 31 31 32 31 30 31 30 28 27 25 24 27 27 29 31 31 32 33 35 36 37 39 40 40 42 39 35 33 31 31 31
55 42 41 27 28 32 31 34 31 29 30 31 30 28 28 27 26 25 27 27 30 31 30 30 31 33 35 37 37 40 41 43 42 39 33 32 35 36
57 46 29 25 26 29 33 31 27 28 29 29 29 28 28 27 27 25 27 27 29 30 29 26 28 32 35 37 38 39 41 43 45 45 42 38 38 41
24 28 28 21 25 33 29 25 27 28 28 27 30 31 28 26 26 26 26 28 27 29 27 25 29 32 35 36 38 40 41 43 45 48 47 47 47 49
22 24 27 24 32 37 32 28 27 28 28 28 31 31 30 28 26 25 26 28 27 28 26 25 28 32 34 36 37 39 41 42 43 45 48 50 49 52

GFSNE_500_spd_024.txt.gz
Wind_Speed
10 8 9 11 12 14 17 13 9 6 9 7 7 9 9 10 11 12 14 17 20 22 22 25 28 31 34 36 37 36 37 38 38 38 38 37 34 32
11 10 13 13 15 13 14 11 8 4 4 7 9 10 11 13 15 18 20 21 22 23 24 26 29 34 37 39 39 37 35 35 37 36 37 40 41 38
11 14 15 17 17 10 9 8 6 4 5 8 10 15 17 19 19 21 24 25 27 28 29 32 35 39 40 40 39 40 41 40 38 39 39 38 38 41
12 15 20 18 12 3 6 6 7 7 11 12 13 14 18 21 23 24 25 27 30 30 34 37 40 43 42 42 43 45 46 46 47 45 40 40 40 40
12 15 10 4 2 4 5 7 10 15 16 17 17 19 21 24 25 26 25 26 29 32 35 39 42 43 44 41 40 42 41 39 38 38 41 39 42 40
16 13 14 16 9 9 8 11 13 15 19 22 25 26 27 29 29 27 26 28 30 35 38 41 41 43 43 44 41 38 34 36 40 41 40 43 45 45
15 14 14 15 15 14 13 14 16 20 21 25 27 31 32 34 33 31 33 33 33 34 40 43 44 42 41 37 36 35 36 36 36 37 39 41 43 47
24 18 20 22 22 20 21 21 22 22 24 25 28 33 33 36 35 34 35 35 36 37 39 41 41 37 36 39 42 44 44 44 41 37 39 40 41 44
20 20 24 24 27 28 31 28 30 29 31 30 34 38 39 35 35 36 33 35 36 40 37 38 35 33 37 41 41 44 45 43 41 41 42 42 42 43
30 30 29 30 30 33 36 34 33 34 36 37 39 41 40 35 35 35 35 33 37 39 35 35 36 34 35 40 43 44 43 42 41 42 43 42 41 40
32 33 32 31 37 39 41 41 40 41 44 44 43 44 43 36 36 35 33 34 36 37 31 33 34 35 37 42 46 43 42 41 40 39 39 37 35 34
31 33 32 34 43 45 46 46 48 49 47 44 46 45 44 37 37 35 32 35 36 36 29 32 35 37 38 42 44 43 40 39 36 36 37 36 35 34
43 43 42 43 48 51 54 53 57 51 51 46 46 46 46 40 39 35 32 36 35 36 29 32 36 36 39 41 42 42 37 37 38 37 35 35 37 38
49 51 50 48 56 59 57 58 62 63 59 48 44 46 45 45 39 36 33 35 34 33 30 32 35 35 38 40 40 40 38 38 38 39 39 39 39 37
55 52 56 55 62 55 59 68 68 68 67 62 48 45 42 40 38 35 34 35 34 32 30 32 34 33 36 38 40 40 39 38 37 38 39 39 38 37
55 53 52 60 58 59 61 70 68 77 69 56 41 35 40 38 36 33 34 33 33 31 29 31 32 33 35 37 39 40 38 38 36 37 38 37 35 34
64 63 62 59 65 66 66 64 71 57 48 32 32 31 42 37 34 33 33 32 32 31 30 27 31 32 34 35 37 39 39 37 36 37 39 39 37 34
70 73 63 68 70 68 63 64 62 47 35 32 36 37 42 37 34 33 32 31 30 30 31 30 30 30 30 32 34 37 39 39 37 36 38 38 37 36
75 75 72 77 71 62 50 54 51 32 32 34 37 41 41 36 34 31 30 30 29 30 30 30 30 29 28 32 36 36 38 40 39 38 38 39 40 37
80 78 73 76 71 64 49 53 35 32 33 36 37 39 37 35 34 30 29 28 30 30 30 30 29 29 27 29 34 38 40 41 42 40 40 40 42 43
83 74 72 75 64 63 61 54 38 34 35 35 33 33 33 36 33 29 29 28 29 29 30 30 28 29 28 30 32 37 41 41 42 43 44 44 43 46
77 72 78 76 62 63 66 63 41 31 31 33 31 33 36 35 32 29 30 29 29 29 30 29 28 29 30 31 34 37 40 42 44 44 45 48 50 51
73 73 75 71 69 64 56 39 35 27 33 37 34 35 35 34 32 30 30 29 30 30 30 29 29 29 30 32 36 38 41 43 43 44 46 49 51 53

GFSNE_500_spd_027.txt.gz
Wind_Speed
5 4 7 8 8 7 9 9 7 2 5 5 5 8 10 13 16 18 20 22 24 24 25 25 25 28 31 33 35 37 39 38 38 38 36 35 34 34
5 7 10 12 12 8 10 8 5 5 5 6 8 12 15 16 20 20 23 25 26 26 26 27 28 32 36 39 41 40 37 38 39 40 40 38 37 37
7 8 11 16 14 13 10 7 7 7 8 12 15 19 20 20 23 26 28 29 29 30 30 30 32 37 41 44 47 46 44 40 37 41 41 45 43 37
11 8 10 10 8 6 7 9 11 9 13 18 17 19 22 24 27 28 32 34 31 28 30 33 34 38 42 43 41 39 37 37 37 38 40 37 37 35
14 8 8 11 9 8 10 13 14 14 16 19 21 25 26 27 29 31 33 35 33 33 33 33 35 38 42 42 40 38 34 32 31 31 31 34 34 38
18 15 12 12 11 12 12 13 14 16 18 23 22 25 26 29 35 39 38 36 32 34 33 33 33 38 42 42 38 37 40 38 37 36 36 39 40 38
19 19 18 18 17 16 15 16 18 22 25 25 27 29 31 34 37 41 41 39 34 32 35 36 38 37 40 36 34 36 40 39 39 39 39 37 37 39
23 23 27 27 24 25 21 21 23 23 28 30 30 32 34 36 41 41 40 38 37 36 35 37 38 41 41 39 37 39 40 41 41 43 41 42 41 40
25 28 27 27 24 28 26 27 27 26 29 32 34 36 37 38 44 43 38 37 39 40 39 40 40 40 40 39 37 43 43 43 42 42 39 42 42 41
27 31 31 30 26 30 35 33 32 33 36 38 37 40 44 44 43 47 44 40 41 42 40 41 41 38 38 39 37 43 43 43 42 40 39 39 38 37
24 29 30 34 33 29 36 35 36 37 42 46 46 45 50 48 47 48 47 46 43 43 41 41 38 36 35 37 38 39 40 42 41 38 38 39 40 38
34 33 30 33 36 35 37 43 44 45 49 50 52 53 51 53 47 46 48 46 44 42 41 43 39 39 35 36 37 39 38 38 40 38 37 39 41 39
42 40 38 41 44 46 44 49 54 55 58 60 56 57 61 49 46 46 46 47 49 42 38 41 39 37 36 36 37 39 38 39 41 39 39 37 41 39
45 43 48 47 50 50 50 53 58 54 52 59 58 59 65 72 52 46 44 49 43 41 38 39 37 35 35 36 37 37 36 37 39 40 39 38 40 40
52 54 57 52 53 42 47 54 57 56 58 60 61 68 71 71 57 43 42 43 40 40 39 36 35 34 34 36 37 35 33 34 37 40 40 39 41 41
55 61 67 68 56 62 54 55 55 59 63 66 65 69 79 72 55 39 40 40 37 39 37 34 34 32 34 36 35 33 30 31 34 38 40 40 42 42
63 65 68 76 70 71 62 71 62 66 72 72 70 68 71 71 43 37 36 37 35 37 35 29 32 32 32 35 34 33 31 32 34 37 40 42 42 44
73 78 79 81 81 78 66 69 70 71 63 77 68 54 49 42 37 33 36 39 36 37 32 31 28 28 31 34 33 31 31 32 34 37 41 43 45 46
78 81 77 86 88 87 83 80 80 62 76 59 52 45 42 31 32 34 39 39 36 37 31 30 29 29 31 32 34 32 31 34 37 39 42 44 46 49
71 75 77 81 85 87 90 81 75 69 78 59 47 36 30 34 35 38 41 36 36 34 31 30 29 29 32 32 33 35 32 34 38 41 43 44 47 48
72 77 79 87 89 86 88 85 73 69 78 42 55 54 40 39 40 44 40 32 32 32 32 30 28 31 32 31 33 33 33 34 36 40 42 45 47 49
72 73 70 76 91 93 93 79 71 83 71 54 56 42 37 37 41 41 35 32 30 31 32 31 29 31 32 31 33 33 34 36 35 39 42 43 47 51
64 73 65 58 56 68 58 67 73 71 67 59 48 37 32 34 37 38 35 33 29 31 32 30 31 31 32 31 32 33 34 36 36 39 42 44 47 50

GFSNE_500_spd_030.txt.gz
Wind_Speed
4 3 7 9 10 11 11 8 4 3 7 7 10 11 17 20 19 21 23 26 28 30 29 28 25 26 29 34 37 39 43 44 40 34 31 33 38 35
9 7 10 12 12 12 12 11 9 7 6 9 11 17 16 20 23 26 27 28 30 29 29 28 27 30 31 34 38 41 43 40 35 30 28 31 34 34
13 11 13 15 15 12 11 12 10 8 11 11 16 17 21 22 24 25 27 29 32 34 33 30 30 31 34 36 39 40 37 37 33 31 28 29 31 32
14 13 13 13 13 12 11 11 10 12 12 17 16 18 20 25 24 27 30 31 32 31 30 32 30 32 37 37 39 40 38 36 33 35 35 34 31 33
15 15 14 13 11 12 14 16 18 16 16 17 21 21 21 23 28 30 31 38 37 30 31 31 32 35 38 37 40 42 42 39 38 41 43 42 37 32
18 17 18 19 19 15 14 15 14 19 20 21 25 28 29 28 30 31 34 37 36 31 30 30 31 34 36 38 39 37 35 36 39 45 46 46 41 37
19 21 20 22 23 23 19 21 24 24 25 24 27 29 31 34 35 36 38 37 37 36 37 35 33 35 36 36 36 38 37 37 42 46 45 45 42 36
17 20 23 23 24 26 30 30 28 29 30 33 33 34 35 38 40 43 42 42 38 38 40 41 41 39 38 37 37 40 42 40 42 42 42 43 39 35
19 22 23 25 26 25 27 31 31 31 33 36 38 41 42 39 41 45 48 50 44 41 42 42 42 41 39 39 38 38 39 39 41 41 41 42 38 35
20 21 22 24 25 29 31 33 35 34 35 36 40 45 48 49 49 48 50 55 47 49 44 39 43 44 38 38 35 33 35 37 40 40 40 42 39 34
27 22 23 23 25 28 31 31 34 38 39 41 45 47 52 56 56 58 64 60 48 49 43 42 45 40 37 35 33 32 33 36 39 39 39 40 39 35
32 30 28 27 30 32 34 36 38 39 45 48 52 54 54 53 55 56 61 65 67 60 44 41 42 38 34 35 33 31 32 34 37 36 35 37 39 37
36 35 34 36 38 39 40 42 41 47 50 55 52 51 53 50 49 56 61 64 64 66 47 42 41 38 33 33 33 33 33 34 37 36 35 35 38 39
42 41 43 43 47 46 46 48 52 51 52 53 56 57 60 62 56 61 60 65 68 68 58 36 39 35 33 32 30 31 32 33 36 36 36 35 38 40
47 47 52 51 51 53 53 57 57 56 58 57 62 59 71 74 69 64 63 66 65 56 50 34 37 35 31 31 31 30 31 33 36 35 36 37 40 41
49 49 53 57 60 59 59 58 64 62 65 67 70 71 74 72 76 47 60 58 49 48 35 34 36 33 30 30 30 29 29 31 35 37 36 38 40 42
55 57 60 61 64 67 70 69 69 68 67 73 77 79 80 78 75 64 39 42 50 41 30 27 32 32 30 30 31 27 29 31 34 37 36 37 39 41
59 61 64 66 68 71 75 75 75 76 70 75 78 77 79 81 83 73 57 48 35 29 29 29 29 31 32 31 31 27 29 31 34 37 36 36 38 41
66 65 65 65 67 71 75 75 74 77 78 78 77 78 83 82 86 49 30 26 22 28 30 32 28 28 29 31 32 27 28 31 34 37 37 37 38 41
68 68 69 70 72 74 76 78 78 76 80 83 84 80 76 65 45 45 32 27 27 27 29 26 27 26 30 30 30 27 28 31 34 36 37 37 40 41
68 67 67 70 70 66 61 65 70 75 80 84 76 90 72 68 65 72 50 28 28 26 24 25 25 28 31 28 29 30 30 31 34 36 36 36 38 40
72 69 66 60 53 57 64 68 72 73 71 70 72 70 67 54 63 59 52 33 30 22 23 27 27 26 28 28 28 30 31 31 32 35 36 36 37 40
67 68 57 44 49 56 57 68 56 46 53 62 56 61 49 49 48 49 41 26 29 24 25 26 27 26 27 27 28 30 30 31 32 35 35 36 38 41

GFSNE_500_spd_033.txt.gz
Wind_Speed
6 8 8 9 10 9 10 6 8 9 9 8 12 16 15 18 22 22 23 26 27 28 27 27 27 27 26 26 29 32 34 36 37 35 31 31 26 28
8 11 12 13 14 12 8 7 7 9 9 11 12 14 19 22 22 25 25 27 31 31 26 25 26 27 29 30 31 31 34 36 37 36 33 34 31 32
10 11 12 12 14 13 11 10 9 8 8 12 16 19 18 19 22 24 26 27 31 31 27 26 27 29 30 32 33 32 32 34 36 35 35 38 36 36
11 13 14 14 14 14 14 11 12 16 17 13 13 18 22 25 25 26 27 27 31 31 30 30 31 31 33 32 33 33 33 34 35 35 36 38 37 37
12 12 17 16 16 15 14 13 13 15 18 23 21 19 21 25 27 29 30 32 32 33 34 33 34 36 36 37 36 36 33 35 37 35 36 36 39 39
11 12 14 16 19 22 20 20 19 21 22 25 28 28 26 28 30 34 36 39 40 37 37 37 31 33 33 35 35 35 31 31 32 34 37 39 42 42
12 13 15 17 19 23 27 26 26 25 26 27 26 32 36 35 33 35 37 42 45 46 43 45 36 33 32 33 37 36 31 30 31 34 38 38 40 42
11 11 11 14 17 20 24 28 31 28 24 27 31 34 38 40 38 40 43 47 51 51 45 41 41 40 34 35 31 32 33 29 30 33 35 36 38 38
7 9 8 9 13 17 18 23 29 33 33 33 33 35 38 42 44 46 47 48 51 52 51 52 55 48 40 32 34 31 34 30 31 31 34 34 35 36
13 14 15 14 15 15 17 20 24 28 31 35 36 36 40 43 47 50 49 48 51 51 54 56 60 56 48 35 34 31 32 31 30 30 32 32 35 35
18 19 20 21 21 22 23 24 26 26 32 36 40 44 47 49 48 45 48 50 53 56 56 60 61 60 60 52 29 29 29 29 28 29 31 31 33 34
25 25 24 24 26 28 31 33 34 34 37 40 43 46 50 53 57 54 54 55 57 59 51 62 63 67 59 36 27 26 27 28 26 27 30 30 33 34
29 30 31 33 35 36 39 42 39 43 45 45 47 53 56 50 47 54 58 63 62 63 63 64 56 51 39 32 31 25 26 27 24 25 28 30 33 34
34 35 35 39 43 45 47 48 48 47 49 50 50 51 56 57 57 66 60 61 67 67 61 63 53 41 35 33 35 27 25 26 23 25 28 28 32 35
39 42 43 44 45 48 49 50 53 57 58 58 55 57 59 62 66 67 69 64 72 70 63 64 50 41 33 29 31 28 24 26 23 25 28 28 32 35
45 46 48 50 53 54 58 59 58 60 62 64 64 61 63 62 65 68 68 70 66 70 71 63 60 46 39 30 30 24 23 25 23 25 27 28 31 35
49 52 54 55 58 59 62 62 61 64 66 65 69 71 72 67 63 66 68 66 72 69 76 62 64 48 34 26 25 21 23 24 23 25 26 27 31 34
55 57 58 60 61 62 64 64 63 64 64 67 71 76 82 77 67 68 69 72 65 65 76 65 48 36 29 29 24 20 23 23 23 26 26 26 30 34
59 62 63 63 65 63 65 67 67 67 63 65 70 69 72 75 72 66 72 80 61 57 45 24 28 23 28 31 20 19 22 21 24 27 25 25 29 33
64 64 65 67 66 67 70 69 65 63 61 59 60 64 73 74 76 79 78 89 75 65 51 21 22 25 28 25 17 19 20 21 25 26 25 26 29 32
64 67 70 69 68 69 65 63 63 62 59 60 62 65 66 68 70 74 62 67 70 73 48 45 35 24 24 21 20 22 20 21 25 24 25 26 29 32
68 70 72 70 70 64 64 64 56 49 56 54 53 55 60 51 78 71 69 88 63 46 41 33 24 24 24 21 21 21 21 22 23 23 25 27 27 31
73 72 72 69 60 64 64 61 51 50 49 50 48 48 45 46 56 43 33 34 34 34 29 22 22 23 21 22 21 21 22 22 22 22 26 27 28 30

GFSNE_500_spd_036.txt.gz
Wind_Speed
7 9 8 6 8 6 5 6 8 10 11 13 14 15 16 18 20 22 23 25 26 27 27 27 28 29 29 30 31 30 31 31 32 33 33 32 32 34
9 12 12 13 13 12 9 6 7 9 10 11 15 17 19 20 22 23 24 26 27 27 26 26 27 28 29 28 27 27 29 30 29 31 32 32 32 33
10 13 13 13 14 16 16 12 9 9 13 14 14 15 19 21 23 24 25 28 29 31 33 32 34 34 32 31 32 31 28 28 28 29 31 31 32 33
9 10 12 11 14 15 17 19 17 15 13 12 16 18 17 21 24 25 25 27 32 37 38 41 42 41 30 31 33 32 29 29 30 28 29 31 31 33
6 7 11 9 10 14 17 18 18 19 21 20 17 18 18 22 25 27 29 31 35 38 41 40 40 42 44 41 39 34 31 29 29 29 29 29 31 33
6 3 5 9 11 12 13 15 18 18 20 23 24 23 26 29 29 27 30 33 36 40 45 47 46 42 43 45 36 34 31 29 27 30 31 29 30 33
7 5 5 5 7 11 15 16 18 19 21 22 24 28 31 33 33 34 35 38 41 43 42 45 47 46 45 45 52 38 31 31 27 28 31 29 30 30
4 2 3 5 7 8 13 17 18 18 18 21 23 25 29 32 35 35 37 39 40 45 44 48 48 57 49 50 49 54 40 30 25 27 29 28 29 28
7 6 5 7 10 13 17 20 21 22 24 27 25 25 30 34 40 40 39 41 41 41 44 45 52 55 59 53 50 47 44 29 21 24 26 26 28 27
12 13 12 13 14 15 19 22 26 25 28 31 34 34 35 36 39 44 46 50 47 45 44 47 51 54 57 56 49 37 36 24 25 21 24 24 26 26
16 17 17 18 19 22 23 25 26 25 30 36 41 41 45 43 41 46 49 56 54 51 52 56 52 56 54 56 62 35 30 25 28 23 23 23 25 25
22 21 23 24 25 27 30 33 33 31 37 40 42 44 46 46 48 51 50 53 58 55 54 57 60 60 56 56 58 36 27 26 28 26 23 22 23 24
27 28 30 31 33 34 35 36 36 38 40 42 44 45 47 51 53 54 59 58 60 60 61 65 66 62 61 55 58 51 40 30 28 28 25 21 23 24
33 34 36 36 36 38 41 43 44 45 47 52 53 52 56 56 56 61 61 63 65 64 65 67 69 68 56 65 59 40 40 31 26 29 25 20 21 22
40 41 39 40 41 42 44 45 47 51 54 56 57 57 57 59 60 60 61 64 66 68 66 68 68 62 68 70 61 48 46 28 25 27 25 19 20 21
41 42 42 43 46 48 51 51 54 56 59 60 61 61 64 63 63 60 58 58 64 66 76 65 65 64 63 70 66 56 47 25 25 26 25 18 20 21
42 43 45 48 50 53 56 57 58 59 61 62 63 64 65 63 61 59 61 64 71 71 67 65 68 69 69 69 71 57 36 23 26 26 24 17 20 22
45 48 51 54 55 55 57 60 62 63 62 61 60 60 59 59 63 68 69 71 69 68 67 69 72 70 78 67 71 51 29 26 25 26 21 18 20 23
50 53 55 54 55 57 61 64 64 65 63 64 63 59 59 59 60 63 66 70 71 70 63 73 75 65 73 65 44 32 25 28 27 27 20 19 21 23
54 55 56 57 59 62 65 66 67 66 64 63 61 59 60 55 57 59 61 65 79 63 81 87 79 63 77 46 38 31 25 26 28 26 20 20 22 23
56 57 59 61 63 65 67 68 68 66 64 63 61 58 58 54 58 63 66 69 66 54 64 84 82 63 69 46 29 25 24 28 26 24 19 21 23 24
59 61 63 65 67 69 69 69 69 69 66 61 58 61 56 54 57 57 54 56 50 48 39 51 52 52 45 27 28 27 23 26 27 21 20 23 23 24
64 67 68 70 72 70 71 69 69 64 62 59 56 60 58 53 55 56 51 50 41 27 21 24 25 31 30 31 27 22 25 26 24 21 23 24 24 24

GFSNE_500_spd_039.txt.gz
Wind_Speed
9 8 10 12 14 12 9 10 10 12 11 11 12 12 12 15 18 18 17 18 19 23 27 30 32 33 33 28 26 27 29 29 24 23 24 25 26 28
7 7 7 8 11 13 13 11 8 8 10 12 12 13 14 15 16 18 19 19 22 25 29 31 30 32 32 32 26 33 29 29 27 26 25 26 26 27
7 6 5 4 6 7 10 9 7 7 8 9 12 14 13 15 17 18 19 21 26 30 31 32 33 35 37 37 36 32 36 30 27 26 23 24 25 28
7 4 5 4 3 3 4 5 6 5 8 11 12 13 13 17 22 24 25 27 30 32 34 33 36 34 34 41 37 40 41 40 27 27 23 23 23 27
4 4 0 2 4 6 8 8 8 10 10 12 15 16 19 22 26 29 28 29 31 34 36 37 40 38 39 40 39 41 40 46 41 29 26 23 21 25
6 5 2 1 2 4 5 8 11 13 15 16 19 21 22 25 27 31 31 33 34 37 37 39 42 45 47 46 50 51 46 43 40 41 24 23 21 23
8 6 2 2 4 6 7 10 11 12 14 15 16 20 23 26 29 32 33 32 32 40 39 38 41 44 47 44 46 47 46 48 41 35 22 23 21 21
6 4 4 4 5 7 11 12 13 14 16 21 20 21 22 26 32 34 35 33 32 39 42 48 48 43 45 52 47 48 43 51 49 36 19 22 21 20
9 8 6 8 10 14 17 18 19 20 21 22 23 24 25 31 34 36 41 40 40 39 40 45 47 48 48 49 53 50 50 51 50 35 23 22 23 20
15 15 14 16 18 20 21 22 21 21 26 31 34 31 33 37 40 43 46 48 45 46 47 52 54 53 51 56 50 53 56 48 51 49 29 21 23 21
18 18 19 20 21 23 25 26 27 26 31 34 37 40 41 42 44 48 49 54 53 53 55 56 58 68 58 61 56 54 56 59 57 49 42 21 23 22
22 23 22 21 24 27 30 31 31 32 36 37 39 43 45 44 47 52 53 57 58 60 57 62 62 61 66 66 67 59 56 58 60 41 33 23 24 23
26 26 27 27 31 34 35 37 38 41 43 45 45 43 45 46 48 52 56 60 60 63 62 65 64 66 66 65 65 65 69 67 56 50 33 26 26 23
27 29 30 34 37 40 40 42 44 45 46 48 49 50 50 49 49 49 52 56 60 61 62 64 67 66 64 65 70 66 70 55 53 41 33 26 27 24
33 35 36 38 41 43 45 47 47 47 50 52 54 53 54 54 55 54 54 55 53 52 55 60 63 68 69 65 63 66 58 60 50 45 53 32 26 24
38 36 38 41 42 42 44 47 49 50 54 55 56 55 56 57 56 58 60 60 58 52 49 54 58 61 64 68 67 64 77 60 47 59 57 34 25 25
42 42 43 43 42 44 46 49 51 54 55 57 58 58 60 61 58 61 60 59 55 51 50 53 58 59 68 69 74 68 70 63 53 56 53 32 28 24
46 46 46 45 46 48 50 52 54 56 56 58 59 62 64 62 63 62 59 58 59 49 51 54 62 67 71 72 71 62 70 63 69 57 42 24 28 24
45 44 45 48 50 51 53 55 56 57 58 59 62 65 64 63 64 61 58 59 60 59 56 59 68 73 68 74 56 49 66 64 57 45 42 23 29 28
46 47 49 51 53 54 56 58 58 59 61 63 66 67 63 62 65 61 60 63 53 55 57 57 66 69 64 50 56 66 57 66 62 41 31 27 32 27
49 50 51 53 55 56 58 60 61 63 65 67 67 67 62 63 64 59 61 64 54 53 57 60 57 58 52 36 33 54 47 59 41 34 31 30 32 28
53 54 55 56 58 61 62 62 65 67 68 69 66 65 61 64 64 55 58 60 54 57 60 58 58 57 43 29 34 46 33 38 31 33 31 29 28 30
56 57 58 61 62 63 64 67 69 68 68 66 62 63 59 62 57 50 53 51 53 51 52 52 48 44 30 22 24 20 20 27 31 30 27 27 28 27

GFSNE_500_spd_042.txt.gz
Wind_Speed
7 9 11 11 11 12 12 11 10 9 9 8 9 9 10 12 14 14 12 17 18 21 22 24 28 27 28 27 26 27 33 30 28 20 24 23 22 22
5 5 6 12 14 13 12 10 8 7 8 8 9 11 13 16 19 19 19 20 23 25 27 28 29 31 31 32 23 30 36 30 37 31 23 24 26 23
1 1 3 6 10 11 10 9 8 9 9 11 10 10 11 13 16 17 19 21 25 29 33 33 33 32 33 35 35 31 32 35 33 35 30 27 23 25
4 3 5 6 7 7 6 5 5 5 6 7 8 10 13 15 17 18 20 22 26 26 31 33 36 38 42 37 37 35 34 34 36 38 43 30 26 20
6 7 7 8 7 5 4 3 3 4 6 8 11 11 13 16 19 23 27 28 28 27 29 34 38 38 38 39 41 39 38 36 37 39 41 31 25 22
8 8 8 4 2 3 2 3 4 5 5 6 8 13 17 20 20 23 26 31 31 34 33 37 35 41 44 46 48 50 48 45 41 44 38 36 21 23
11 8 6 5 4 2 2 0 2 5 8 10 12 14 17 21 25 27 26 28 30 34 37 38 41 42 47 51 56 55 46 42 44 41 36 41 24 18
10 8 7 7 6 6 7 7 9 11 12 14 13 14 18 22 27 31 33 36 36 37 40 38 45 45 48 54 57 63 58 50 39 49 47 45 38 22
10 8 9 10 11 13 13 14 14 17 19 21 20 21 23 29 32 35 39 41 40 42 44 41 44 46 49 52 59 66 65 61 64 57 53 44 51 32
13 13 13 16 18 20 21 19 18 20 24 27 29 28 30 33 37 42 43 45 40 41 45 48 46 48 51 51 55 62 65 61 53 51 47 54 53 38
18 17 17 20 22 23 22 22 23 26 30 34 36 38 40 43 45 46 46 46 46 45 48 51 50 54 52 50 53 57 60 62 58 53 55 52 53 37
22 21 22 24 26 28 27 27 28 32 34 36 39 41 42 44 45 50 51 51 54 53 48 58 58 57 50 50 53 55 57 60 61 58 53 49 39 28
15 20 24 27 26 28 29 30 33 37 39 39 41 42 43 45 46 48 47 51 55 56 54 61 54 51 52 55 55 52 53 57 57 62 53 48 40 34
20 20 23 27 30 32 33 34 37 41 42 40 41 43 47 47 45 46 46 50 49 48 49 54 53 53 53 48 49 44 56 59 58 64 63 56 53 46
31 31 32 32 33 36 37 37 38 40 41 42 44 47 48 49 47 51 52 56 55 52 51 47 47 47 50 51 52 51 54 59 62 62 60 66 53 45
38 37 39 40 39 40 39 40 41 42 43 45 48 50 50 49 51 54 56 59 57 55 56 58 56 55 47 50 53 60 64 64 62 58 54 70 51 64
50 50 47 45 45 45 44 44 45 47 47 50 52 51 51 53 54 55 58 60 58 57 59 58 60 58 51 54 63 67 67 69 69 51 47 58 53 48
51 49 46 47 46 46 46 46 48 49 50 52 53 52 54 56 57 58 59 58 56 58 62 61 55 53 55 59 64 65 70 72 56 41 57 48 45 58
50 48 47 45 44 44 46 47 48 49 51 52 53 54 57 59 61 62 58 57 56 58 62 54 49 53 60 61 60 62 64 57 37 42 47 41 58 45
46 45 45 44 43 43 45 46 48 49 51 52 54 58 59 62 64 59 56 54 53 58 55 48 50 51 51 55 60 63 58 41 35 31 38 48 57 43
42 42 43 44 46 48 48 49 50 51 53 56 58 60 63 65 60 59 55 54 54 55 51 52 56 55 49 43 51 55 49 35 26 23 29 44 39 38
45 46 47 49 51 52 52 53 54 56 57 58 61 63 61 62 62 57 56 56 53 48 48 54 55 53 50 50 50 49 49 40 29 23 31 32 33 38
50 52 52 54 55 57 57 57 58 59 62 64 63 62 62 60 61 58 57 51 49 47 45 50 53 45 45 48 47 43 41 41 27 19 17 28 34 26

GFSNE_500_spd_045.txt.gz
Wind_Speed
6 7 9 10 13 13 13 12 11 9 6 6 7 11 14 15 13 11 11 13 15 17 20 21 24 25 26 25 24 22 26 29 29 28 31 34 25 27
4 6 10 11 13 14 14 12 10 9 9 10 11 10 10 10 10 10 12 14 15 17 21 26 30 30 30 30 29 32 32 28 30 34 34 35 31 28
3 6 10 11 13 14 13 12 11 10 9 7 6 7 8 9 10 12 14 16 19 21 23 27 30 31 33 35 37 39 38 40 41 31 34 36 34 34
4 5 8 11 12 11 10 9 8 7 5 3 4 7 9 12 15 17 19 21 23 24 25 24 29 32 35 38 42 45 46 49 51 45 29 32 34 37
7 8 9 11 10 8 7 7 6 3 2 4 6 8 11 14 17 19 22 24 26 28 29 32 35 36 38 40 43 45 48 50 52 52 46 40 43 37
10 10 12 11 10 8 7 5 4 2 2 4 7 11 14 16 17 18 20 25 28 33 33 35 37 39 40 40 41 44 47 51 52 52 47 46 46 45
12 12 13 11 10 9 8 6 3 4 6 6 7 8 13 17 21 24 26 29 32 32 36 38 37 37 39 42 45 46 47 49 50 52 52 47 44 37
11 12 12 10 8 8 6 6 7 7 8 9 10 11 14 19 25 28 31 31 31 38 33 31 36 37 42 44 47 50 51 49 49 48 52 45 43 40
12 12 10 7 6 6 8 10 12 12 13 13 13 18 21 26 29 31 33 34 35 39 40 35 41 40 43 46 49 50 48 45 46 48 50 50 45 39
13 13 11 11 11 13 14 15 16 17 16 16 17 23 27 30 33 35 37 38 34 35 42 40 41 41 42 44 43 45 47 48 50 49 49 49 45 41
15 15 15 16 17 17 17 17 21 22 21 22 27 30 32 34 38 38 41 42 39 35 40 46 41 42 40 40 40 40 46 52 54 54 53 52 50 46
19 17 17 19 22 24 24 23 23 24 26 28 30 33 35 37 40 43 44 44 45 45 44 50 52 51 49 43 40 39 40 47 53 58 60 60 56 53
14 16 18 21 23 24 25 25 26 28 30 31 32 34 35 38 41 44 46 48 47 49 48 52 54 52 53 53 44 41 38 38 45 51 59 63 62 55
19 19 20 21 24 25 28 28 30 33 35 34 33 34 36 39 42 42 44 47 47 51 54 56 57 55 53 54 49 42 37 38 44 49 59 64 58 60
26 27 28 29 31 33 34 36 37 37 39 37 38 40 42 44 45 45 46 48 49 53 56 58 57 56 56 57 47 41 43 45 50 53 57 58 60 58
32 32 34 34 36 36 40 40 42 43 43 41 41 43 45 47 47 47 47 49 52 54 55 56 55 55 57 58 53 51 55 59 57 57 60 58 57 41
38 41 42 42 44 47 48 45 42 41 43 44 45 46 47 47 47 47 49 53 55 58 58 55 54 56 54 51 51 58 59 56 58 62 64 59 47 33
46 46 48 50 49 49 46 42 43 43 43 44 44 45 46 46 47 48 52 55 57 57 55 55 54 54 47 50 52 58 61 56 60 57 60 51 37 34
50 51 51 51 52 51 47 43 41 41 41 41 43 45 46 47 48 52 55 57 57 55 58 57 56 50 47 49 55 55 55 54 57 51 53 45 33 32
53 52 51 50 46 44 42 40 39 41 42 44 46 47 48 49 52 54 57 56 55 54 54 54 52 50 46 50 51 50 50 50 52 47 47 36 30 20
49 45 41 39 39 39 39 40 42 43 45 47 48 48 50 52 54 57 58 54 54 54 55 54 50 51 51 50 47 49 49 46 47 49 42 39 32 25
38 38 38 39 40 41 42 44 46 48 49 50 50 52 54 54 57 58 55 53 54 53 53 53 52 48 50 46 45 43 45 45 47 42 40 39 31 18
39 40 40 42 44 45 47 49 51 53 54 55 56 56 58 59 59 55 55 55 54 52 50 50 49 46 46 45 42 42 44 42 43 41 38 32 25 24

GFSNE_500_spd_048.txt.gz
Wind_Speed
5 5 7 10 12 12 10 8 8 6 4 5 9 11 11 9 7 7 9 12 13 16 17 20 23 25 27 29 30 33 35 34 36 34 42 42 36 36
5 7 9 10 11 12 11 10 8 6 8 9 9 8 7 7 7 8 10 12 14 16 19 21 25 28 29 32 34 35 36 38 39 42 44 41 44 32
5 8 11 11 12 13 13 11 9 9 9 8 5 4 7 8 8 8 11 14 16 18 20 22 25 28 30 32 34 36 38 41 43 44 47 45 38 38
7 9 13 14 14 15 15 13 11 9 7 3 3 5 7 8 10 13 16 17 20 22 25 28 31 31 32 33 34 36 39 42 45 46 48 46 41 39
9 10 14 15 15 15 14 12 10 8 5 2 1 4 6 7 10 11 14 18 23 26 26 30 35 36 34 36 38 39 41 42 43 44 44 44 42 45
10 12 14 17 15 14 12 10 7 5 2 3 7 9 10 12 14 15 18 22 23 27 29 32 34 33 36 41 42 43 44 45 43 42 41 41 42 43
11 11 15 16 15 14 10 8 5 3 5 6 8 8 12 14 15 18 20 23 25 29 28 31 32 35 38 37 41 47 48 45 41 38 39 41 41 41
12 12 14 14 14 12 8 6 5 6 8 8 8 7 10 13 16 20 22 26 27 32 31 30 35 36 38 37 40 42 44 47 44 40 39 41 41 41
11 12 14 12 10 9 7 5 7 8 9 10 9 11 14 19 21 22 26 27 30 32 32 31 36 37 40 40 39 39 42 44 46 47 46 46 44 43
12 12 12 11 10 9 8 6 6 9 14 16 17 14 17 21 23 25 27 27 30 34 38 33 36 38 43 41 40 39 40 42 47 49 51 48 50 51
14 14 15 14 13 13 11 10 12 14 18 20 21 21 23 27 30 29 33 34 33 37 41 43 41 43 43 42 40 40 44 43 43 48 48 48 48 52
17 16 14 14 15 17 17 19 19 21 22 24 25 25 27 29 34 34 36 38 41 35 41 44 44 49 47 37 41 45 46 45 43 40 45 49 53 58
19 18 17 18 21 24 24 23 21 23 25 26 26 29 32 34 36 39 41 41 42 42 44 48 48 50 54 50 43 46 48 41 37 40 43 48 53 57
20 20 21 21 21 21 20 22 25 28 29 32 33 35 37 39 41 41 43 44 44 45 44 48 53 54 53 51 55 52 51 44 42 46 47 49 53 57
21 21 22 23 24 25 27 30 32 32 34 34 39 41 42 39 39 41 42 43 44 46 48 51 53 54 53 52 57 57 53 49 50 48 45 52 54 62
27 28 29 30 32 32 33 36 36 37 41 43 45 41 37 39 40 40 41 41 43 45 48 51 53 53 52 53 55 52 52 52 49 47 46 51 55 59
33 34 34 36 36 35 37 40 42 45 45 43 42 40 39 38 38 39 40 41 43 46 49 51 53 52 53 53 54 53 52 51 48 45 48 52 53 56
40 39 41 42 42 44 45 43 44 44 43 42 40 39 38 38 39 40 41 43 46 49 52 54 54 51 54 53 53 51 50 45 45 48 49 50 52 56
47 44 44 44 43 44 46 45 44 43 40 39 38 37 37 39 40 43 45 47 50 53 54 56 53 55 53 53 54 52 49 44 44 45 50 52 51 54
42 44 47 45 46 47 45 43 40 37 36 36 36 38 39 42 44 47 48 50 52 54 57 54 52 54 52 49 51 54 50 45 44 42 48 47 46 50
43 43 45 43 41 38 38 37 36 36 36 36 38 41 42 44 47 49 51 52 54 56 54 53 53 51 50 52 54 54 47 45 46 45 46 48 43 46
42 40 39 37 36 37 36 36 36 36 38 40 42 44 47 48 49 52 55 56 54 53 52 52 50 50 51 50 53 56 45 45 45 48 47 46 46 44
42 40 38 37 36 36 35 36 37 39 42 44 46 47 48 50 53 54 55 56 56 55 52 50 51 51 50 51 52 54 46 44 44 42 41 41 43 40

GFSNE_500_spd_051.txt.gz
Wind_Speed
5 5 6 7 7 6 5 5 5 4 2 4 8 9 7 5 7 7 9 11 13 14 17 18 21 25 28 29 31 33 35 38 39 40 41 41 41 36
5 6 7 8 8 7 6 5 5 4 5 7 6 5 3 3 4 7 10 11 14 17 18 20 24 29 30 31 32 34 36 38 39 41 42 43 41 37
5 9 10 10 10 10 9 8 7 7 8 7 4 4 3 2 4 8 10 12 15 17 21 26 27 28 30 32 34 35 37 39 40 41 41 41 41 37
8 10 14 13 13 13 13 11 10 10 9 6 5 3 2 6 8 9 12 13 17 21 22 26 31 35 35 35 37 39 40 41 42 42 43 41 40 39
11 12 15 17 16 15 15 14 11 9 8 6 2 2 3 3 4 7 10 14 17 19 20 22 26 30 33 38 40 40 41 42 41 41 41 40 40 41
13 13 16 19 18 16 15 12 11 9 7 5 3 3 2 4 6 8 12 15 18 22 24 26 27 27 29 31 35 38 42 43 43 43 42 44 43 43
15 13 15 18 18 16 14 12 10 8 6 6 7 8 9 9 10 13 14 17 22 24 26 29 30 32 34 34 37 36 36 39 42 45 47 47 48 44
14 13 13 15 17 16 13 12 9 8 7 8 11 13 10 11 14 16 17 17 19 26 26 28 31 30 33 36 40 40 37 38 40 43 47 51 50 45
15 12 14 15 15 13 13 12 10 8 8 8 9 12 14 17 17 18 21 23 24 26 28 30 32 32 35 37 40 42 40 38 39 44 47 46 45 41
15 14 15 15 16 14 14 12 11 9 9 10 12 14 16 18 22 22 21 24 27 31 35 30 33 34 37 41 43 45 42 44 45 43 43 42 40 40
17 15 15 16 16 14 13 14 13 11 13 16 19 19 20 23 26 29 28 26 28 34 39 38 38 35 34 41 44 43 40 43 46 43 39 42 42 43
19 17 16 16 16 15 14 14 13 16 19 20 22 22 23 27 29 32 34 33 34 32 40 38 39 41 38 35 40 44 44 46 49 49 47 43 41 46
22 20 16 16 17 17 18 18 19 20 19 19 22 25 28 32 33 38 38 36 40 39 42 40 40 41 43 46 44 41 43 46 49 49 50 48 46 42
23 21 21 22 21 23 23 21 20 20 22 24 28 28 34 32 36 39 39 38 41 41 40 40 42 45 47 49 49 45 46 49 50 52 53 49 47 42
23 25 25 26 26 26 25 24 26 27 28 30 36 38 38 39 40 41 39 40 39 37 38 40 42 44 48 50 48 47 49 51 53 52 50 48 41 43
29 29 30 28 26 27 28 30 33 32 30 31 37 37 37 40 41 39 36 35 34 36 39 41 42 46 48 49 49 48 51 51 50 52 55 54 50 47
31 32 31 30 32 32 33 34 35 39 43 39 41 40 39 39 37 35 34 33 35 38 41 43 45 48 49 49 48 50 50 49 49 49 52 51 48 47
34 33 33 35 36 38 41 42 40 41 41 42 42 42 39 36 35 33 33 35 37 40 43 46 46 48 50 47 49 48 48 48 46 49 51 48 48 49
39 41 40 40 40 42 46 47 45 44 44 43 41 39 36 34 33 33 35 38 40 42 44 46 48 48 48 49 50 50 49 49 49 50 49 49 49 49
43 44 44 42 42 38 39 42 44 45 44 41 39 36 34 35 35 35 38 40 42 43 44 47 48 48 50 50 49 51 50 50 50 51 49 50 46 45
40 43 43 40 39 42 42 43 42 40 38 36 36 35 35 36 37 39 41 42 44 45 46 49 51 52 53 51 48 47 47 49 52 50 48 47 43 41
41 44 44 45 44 41 39 37 36 36 37 37 36 36 38 39 41 42 44 45 46 46 49 51 53 54 49 46 48 48 51 52 51 48 46 44 39 38
40 39 41 40 39 39 39 38 38 38 39 40 41 42 43 44 46 48 49 50 49 50 53 53 52 50 49 48 48 51 51 51 47 47 47 45 43 43

GFSNE_500_spd_054.txt.gz
Wind_Speed
4 4 4 6 6 5 6 4 5 5 7 11 12 10 7 7 8 10 11 13 15 16 18 21 25 25 27 29 30 32 35 37 39 40 42 44 43 40
4 6 6 8 7 5 4 4 4 3 6 7 7 6 4 4 4 7 9 10 13 16 20 23 25 26 30 31 31 32 36 38 40 41 43 44 43 43
4 7 9 9 9 9 7 6 6 6 6 5 4 4 3 2 4 6 8 9 12 14 15 22 26 31 31 32 32 34 36 39 40 41 42 44 43 44
6 8 11 11 11 10 10 8 9 8 6 4 3 2 0 2 3 5 7 10 15 18 20 20 21 24 29 30 34 38 40 39 41 42 43 43 45 46
10 9 12 13 14 14 12 10 10 9 8 6 5 3 1 2 3 5 7 9 11 12 12 16 20 23 24 27 30 33 37 41 43 44 44 44 43 45
11 12 13 16 16 16 15 13 12 10 9 8 6 4 4 6 8 8 11 14 13 18 21 24 27 27 28 29 30 34 37 40 40 40 42 43 44 42
13 13 14 16 18 18 16 14 13 12 11 9 9 8 8 9 11 14 16 17 19 21 20 25 26 29 31 32 33 35 37 39 37 40 44 46 43 40
13 15 15 15 17 19 18 16 15 14 12 11 10 11 12 13 15 18 20 21 19 22 22 25 28 30 33 35 35 37 38 39 40 43 46 47 46 43
13 14 15 16 18 19 20 19 18 16 14 12 11 12 12 16 17 19 21 23 25 24 25 27 29 30 33 35 35 36 39 41 42 43 45 46 46 45
14 15 17 18 19 19 18 18 18 16 14 12 12 13 12 15 18 21 23 24 23 26 29 28 29 31 34 36 37 38 39 40 39 41 45 46 45 42
15 16 18 19 21 21 18 18 18 17 16 16 16 16 18 18 20 24 27 29 29 28 33 33 33 32 34 36 36 37 40 40 41 43 46 46 46 43
17 19 19 20 22 21 20 19 17 19 18 17 19 20 20 21 25 26 27 30 32 29 34 32 32 32 29 33 37 39 40 40 40 42 44 44 44 47
21 24 24 24 23 22 20 19 18 20 20 17 16 18 23 26 29 30 32 34 33 32 34 32 32 32 35 34 35 37 39 39 39 41 42 44 45 48
25 27 28 25 23 22 22 23 21 19 19 20 21 24 27 31 34 34 36 37 38 37 32 33 33 34 37 38 40 38 39 39 41 43 41 44 48 50
26 27 29 28 27 27 27 24 22 23 25 27 29 31 30 29 33 36 38 41 40 39 35 33 33 37 39 40 40 41 40 40 42 43 41 45 48 52
27 28 29 30 30 29 28 28 29 29 29 31 33 34 38 36 38 40 40 42 40 37 34 30 33 35 38 40 41 41 42 45 45 44 42 46 50 50
30 31 31 31 31 32 33 33 33 33 34 36 36 38 41 41 41 44 44 41 35 31 32 34 35 36 37 38 40 42 44 47 47 46 46 48 49 47
37 38 38 38 36 35 35 35 36 36 39 42 45 47 46 45 45 45 42 36 31 31 32 37 39 39 41 42 42 45 48 49 47 46 47 50 50 48
42 41 42 39 36 36 37 37 39 40 42 45 45 45 46 46 46 43 37 32 32 33 35 38 40 40 43 44 45 47 49 48 47 47 47 52 49 44
48 45 43 41 39 39 38 38 42 44 43 42 42 45 48 47 41 37 34 34 34 36 38 41 41 45 46 46 47 47 48 49 50 48 49 49 45 43
53 55 51 45 38 37 37 38 39 40 41 41 42 44 43 40 37 36 36 36 37 39 42 45 47 48 48 50 51 50 50 50 49 46 47 39 41 40
49 60 44 37 39 39 39 41 41 39 39 39 39 39 39 38 38 37 39 40 41 43 45 47 49 49 51 51 53 53 50 47 46 43 41 37 40 40
50 42 33 36 25 34 42 41 37 36 36 37 36 37 39 40 41 42 43 44 45 47 48 47 49 51 50 53 52 54 50 39 35 38 40 36 34 37

GFSNE_500_spd_057.txt.gz
Wind_Speed
4 7 9 9 11 8 8 10 11 13 14 15 13 10 9 7 7 10 10 11 13 15 18 23 25 26 28 28 29 31 33 35 37 38 41 43 42 41
4 5 7 9 9 10 4 6 8 10 10 9 9 7 4 4 5 5 6 7 8 13 17 22 24 23 26 27 29 31 33 36 38 40 42 42 42 43
2 5 6 8 9 8 9 8 7 7 6 6 4 3 2 2 2 3 5 8 12 14 16 17 18 21 24 25 28 32 35 37 39 42 41 41 42 42
5 5 9 8 10 10 10 8 7 7 6 4 3 2 2 1 2 5 7 10 13 14 14 15 18 20 22 26 28 30 32 35 38 39 40 41 43 41
8 8 10 12 12 12 12 12 11 9 7 5 4 4 4 4 4 6 9 11 14 15 15 16 18 22 26 27 28 30 31 34 37 39 39 41 43 42
10 11 11 13 15 14 14 14 13 12 11 10 9 8 7 6 8 10 12 13 16 18 19 21 23 27 28 29 30 31 32 34 36 36 37 41 43 43
12 13 13 14 16 17 16 16 16 15 14 13 12 11 10 10 11 12 13 16 20 22 22 24 24 28 29 31 32 32 33 35 36 37 39 41 42 41
13 15 16 15 15 18 20 19 18 17 17 16 15 15 13 13 12 14 15 18 18 23 22 25 28 30 31 31 33 32 32 34 36 38 37 40 41 39
13 14 17 17 17 17 21 22 21 21 20 18 17 17 15 16 16 17 17 19 20 23 23 26 30 30 32 33 33 34 34 35 36 36 36 39 40 39
14 15 17 19 19 20 21 23 24 23 23 21 19 19 15 15 17 18 19 20 23 25 27 26 31 31 31 31 31 34 35 36 35 35 36 39 41 41
18 17 19 21 22 22 22 23 24 24 24 22 19 18 17 19 20 17 20 23 25 27 30 30 30 29 28 29 31 34 35 35 35 33 36 38 38 40
23 21 21 23 26 24 24 25 24 25 23 20 19 19 20 20 18 21 23 27 28 27 31 33 30 28 25 27 31 33 34 35 36 36 37 37 36 38
28 24 23 26 28 26 26 26 25 25 23 22 21 22 22 20 21 26 29 29 28 32 36 34 32 27 27 26 30 34 34 35 36 37 40 39 40 41
30 29 27 27 28 28 27 27 28 27 26 24 23 23 23 24 28 31 33 32 34 35 36 36 32 30 29 30 30 32 34 34 36 38 39 39 40 41
33 33 30 28 31 30 29 30 31 31 28 27 25 26 28 31 33 31 33 35 37 40 41 38 33 30 29 32 34 33 33 35 37 38 38 40 40 40
35 35 33 32 32 34 34 34 35 34 30 29 28 29 32 34 36 35 36 39 40 42 42 38 32 28 29 32 34 34 36 37 37 39 40 41 43 44
39 39 36 34 34 37 37 39 38 34 31 31 32 34 36 37 39 41 43 44 43 43 41 37 30 27 29 32 33 36 37 38 39 40 41 42 43 43
42 39 38 38 37 38 39 37 35 35 35 36 38 39 39 42 44 43 45 45 43 44 39 35 32 28 28 30 33 36 38 39 40 40 41 42 43 39
41 40 40 40 39 39 38 38 39 41 41 41 42 42 43 45 45 43 42 42 44 39 34 35 35 34 32 34 34 37 40 41 41 41 39 39 40 35
43 44 44 45 47 47 47 46 47 45 44 44 44 43 45 45 47 46 44 43 38 35 34 34 35 38 39 40 39 39 41 43 42 42 40 38 38 35
46 48 50 53 53 54 52 46 52 46 45 44 43 44 44 44 45 46 44 38 34 34 34 36 38 39 42 44 45 44 43 44 43 42 40 36 37 38
43 49 54 57 56 59 55 38 48 44 44 42 41 43 45 45 43 43 41 36 35 35 35 38 41 42 45 47 49 49 47 46 43 42 40 37 38 37
45 52 53 57 61 63 59 50 54 47 49 46 37 41 43 43 42 38 39 39 38 39 40 41 44 45 47 49 49 50 50 49 47 44 41 41 41 40

GFSNE_500_spd_060.txt.gz
Wind_Speed
9 11 13 14 14 15 11 11 15 16 16 14 9 8 6 5 4 5 8 10 12 13 19 23 25 23 25 27 28 31 32 34 37 38 40 40 42 41
6 7 10 11 12 14 14 12 12 15 14 12 8 5 3 1 1 4 5 7 10 15 19 19 21 23 26 27 29 32 35 35 36 38 41 41 41 41
5 6 7 9 10 10 12 14 13 13 11 9 6 4 3 2 1 3 5 9 13 15 16 18 19 23 26 28 29 31 34 34 36 37 38 39 40 42
5 7 9 9 9 11 11 12 12 11 11 9 7 6 4 5 5 5 7 10 13 15 16 18 19 22 25 26 27 29 31 32 34 36 39 39 39 38
8 8 10 12 12 12 12 12 12 11 11 10 9 8 7 6 7 9 9 11 14 16 17 19 20 23 26 28 29 30 31 32 34 36 36 36 40 41
10 11 12 13 15 14 14 14 14 13 13 12 11 11 10 9 10 10 13 12 14 17 21 21 24 26 27 29 31 32 32 32 33 36 35 35 38 40
10 13 15 15 16 17 18 17 17 17 17 16 15 14 14 12 12 14 14 14 16 18 19 24 25 29 30 29 30 31 32 34 35 36 34 34 36 37
12 13 16 18 18 18 21 21 21 20 20 19 19 19 19 17 17 17 15 14 13 20 20 26 27 31 33 32 31 30 30 34 35 33 34 32 34 37
13 13 14 18 20 19 20 23 24 23 24 23 23 23 21 20 20 18 16 15 16 19 24 27 28 32 33 32 30 28 29 32 34 33 31 33 34 36
17 16 15 17 20 22 21 21 25 27 28 26 25 25 23 24 21 16 17 19 18 22 26 27 29 33 33 29 27 27 28 31 32 30 30 33 35 36
22 19 19 19 22 24 24 23 24 27 30 28 26 26 27 26 21 17 21 20 19 21 27 28 30 32 33 29 27 26 28 31 30 29 30 32 35 35
26 24 24 24 26 27 26 28 25 28 31 29 28 29 29 25 22 22 21 21 22 25 30 33 32 33 31 30 26 25 27 30 29 29 30 31 32 35
28 28 29 29 29 29 28 29 28 31 30 28 29 30 28 26 26 25 24 24 25 29 31 32 34 36 37 32 28 25 27 28 29 31 32 33 34 33
29 32 34 34 33 32 29 29 32 32 31 30 30 30 28 28 30 28 27 27 31 32 35 36 39 38 38 35 29 27 28 28 28 29 30 32 33 33
34 35 39 41 38 33 30 32 33 33 34 33 33 32 32 32 33 31 31 33 36 36 38 39 42 40 38 35 29 28 30 30 31 32 33 34 33 31
37 37 41 43 41 35 33 33 35 36 37 36 37 36 36 36 35 34 34 37 39 40 41 43 44 39 37 31 28 27 27 29 31 31 34 35 36 33
41 42 41 42 41 38 37 36 39 41 41 42 42 40 40 39 37 36 37 40 42 43 42 44 39 38 36 29 30 30 30 32 32 35 36 37 36 33
41 39 39 41 42 41 40 41 42 45 45 45 45 44 43 39 38 39 40 43 45 45 43 42 39 40 34 30 31 31 33 35 35 36 37 39 38 36
41 40 40 42 42 43 42 43 44 47 48 48 47 44 45 44 42 43 46 47 47 46 45 43 41 37 31 31 32 35 36 38 38 37 39 39 37 37
43 43 43 43 43 42 43 45 48 49 51 53 50 49 49 47 48 47 49 50 47 44 43 44 40 36 34 33 34 37 39 40 40 40 40 40 40 39
43 43 44 43 42 42 45 46 49 49 50 55 60 69 56 55 54 48 47 47 44 41 43 44 41 39 37 37 40 39 41 41 43 43 41 43 44 44
41 41 43 45 46 46 46 48 51 54 57 64 67 53 56 61 56 51 49 45 44 40 41 44 43 41 42 41 42 44 45 45 45 45 46 46 48 49
42 40 40 41 43 46 47 51 56 59 62 62 60 61 56 64 61 53 47 45 43 40 41 44 44 43 45 46 47 48 49 48 47 47 50 52 52 53

GFSNE_500_spd_063.txt.gz
Wind_Speed
14 13 11 10 12 13 11 13 15 16 14 11 8 5 4 5 5 7 7 9 12 13 18 19 20 23 27 29 30 32 35 35 36 38 40 40 41 42
12 14 14 13 12 12 11 12 14 14 13 10 7 4 1 2 3 4 6 8 10 15 18 20 20 22 26 28 30 31 34 35 35 37 39 38 39 42
8 13 13 12 12 13 13 13 14 14 12 9 6 4 3 2 4 4 6 8 11 14 17 19 20 21 24 25 27 30 32 34 35 36 38 38 37 38
5 8 13 14 14 13 13 12 12 12 12 9 7 6 5 6 6 7 8 9 11 13 15 18 20 23 26 27 28 30 32 33 33 35 37 37 36 38
5 7 9 13 15 15 15 15 14 13 12 12 11 9 9 10 11 12 11 12 14 14 17 19 21 24 27 30 30 31 31 30 32 34 34 35 34 36
7 8 10 11 14 16 17 17 17 17 17 16 15 15 14 14 14 13 15 15 16 16 18 20 24 27 29 31 32 30 31 29 31 34 34 34 35 34
9 9 12 13 14 17 18 19 20 21 20 20 20 20 20 17 16 17 17 18 20 16 19 22 26 27 28 31 33 31 29 28 30 33 32 32 35 35
12 11 12 13 15 17 20 22 22 23 23 22 23 22 24 21 19 20 20 20 17 20 17 21 25 31 30 33 35 31 28 27 29 31 30 31 34 34
16 14 14 14 16 18 20 21 23 25 25 26 26 27 27 26 23 23 22 20 18 20 19 22 25 28 31 31 30 29 26 25 27 28 29 29 32 34
20 18 18 17 17 18 20 21 22 24 28 29 28 31 28 29 26 23 22 20 20 23 23 24 25 30 31 32 33 29 26 24 24 26 27 28 29 33
24 24 22 21 21 20 19 20 23 24 25 28 31 31 30 31 29 25 24 21 21 23 25 23 27 30 30 34 32 29 26 23 23 24 24 26 28 31
26 26 26 25 27 26 23 23 22 26 28 27 27 31 33 33 31 27 25 23 25 25 25 24 28 30 34 37 33 30 26 22 23 24 24 25 26 31
28 28 28 30 31 32 29 25 25 30 30 30 28 29 33 33 33 29 27 27 27 27 28 28 31 35 36 36 35 32 27 22 22 24 26 28 28 29
30 32 31 33 35 36 35 30 29 32 32 32 31 32 34 34 33 30 30 31 30 31 31 32 35 36 35 38 36 31 28 23 22 24 26 28 29 30
35 36 38 38 38 37 37 36 34 33 34 34 35 36 37 35 33 34 34 35 34 35 34 36 38 39 38 36 33 33 32 25 23 25 26 26 28 29
40 41 42 43 41 40 40 40 38 37 37 36 37 38 38 38 37 38 38 39 39 39 38 40 41 40 38 37 33 31 28 26 27 27 28 30 30 31
46 46 44 42 43 42 42 43 43 41 39 39 39 40 41 41 42 42 42 43 44 44 42 42 43 43 40 40 35 32 29 28 29 31 31 30 32 35
46 42 39 37 37 40 43 44 44 42 39 40 42 43 43 45 47 48 48 47 48 50 46 44 45 46 45 42 39 35 31 31 33 33 33 33 34 36
44 42 39 38 37 39 40 42 42 41 40 40 40 43 45 47 50 53 52 51 53 57 53 48 48 48 47 43 41 39 34 34 35 36 37 37 37 37
39 42 42 41 41 40 41 42 41 41 41 41 43 44 45 49 51 52 53 52 60 64 55 54 50 49 46 44 40 39 37 36 36 37 40 42 41 41
38 38 38 41 42 43 43 43 43 44 46 45 45 48 50 52 53 55 56 58 66 64 61 53 51 50 49 46 41 39 39 40 40 41 43 45 46 44
43 39 39 41 44 44 46 46 46 47 49 46 46 45 50 54 54 60 60 58 68 64 56 55 51 50 50 47 42 41 40 43 44 43 46 49 49 48
46 44 45 45 45 45 45 46 46 47 47 47 46 43 47 52 57 60 60 64 60 56 50 51 51 50 50 46 43 43 43 43 44 47 49 53 54 54

GFSNE_500_spd_069.txt.gz
Wind_Speed
15 14 14 13 12 12 12 17 15 12 9 7 6 5 4 5 5 5 5 9 10 12 15 18 20 22 25 27 28 28 27 27 28 29 29 31 34 35
17 16 12 11 12 12 11 14 15 12 9 7 5 4 3 3 3 2 4 6 8 11 14 15 18 20 22 25 28 29 26 25 25 26 26 29 32 35
17 17 16 14 12 12 13 13 13 13 12 11 8 6 5 3 2 3 5 6 8 10 13 14 14 17 20 22 25 27 28 25 23 24 24 26 30 32
16 17 16 15 15 15 14 13 13 14 14 14 11 11 10 8 7 7 9 9 9 10 12 13 12 15 18 20 25 27 27 26 22 22 23 24 26 30
13 16 17 16 17 17 17 16 16 16 17 16 15 15 14 13 13 13 13 13 13 13 13 13 12 13 15 17 19 24 26 24 21 21 22 23 25 27
9 10 14 16 18 18 18 19 19 19 19 19 19 19 19 18 18 16 17 16 16 15 17 15 13 13 12 15 19 24 27 27 23 19 21 22 24 28
9 9 10 11 13 16 19 20 21 22 23 23 23 23 23 23 22 18 19 22 23 19 19 18 16 16 16 15 18 22 27 27 25 22 21 22 23 27
14 12 11 10 10 13 15 18 20 22 25 26 26 26 28 27 25 22 21 23 23 25 19 22 18 17 18 16 19 23 25 26 25 23 20 20 21 24
21 18 16 14 13 12 12 14 16 19 22 25 25 28 29 31 27 25 23 24 25 25 21 22 21 18 19 19 20 21 24 25 27 25 22 19 18 20
24 24 22 20 18 16 14 13 14 15 19 21 22 24 25 26 26 25 26 26 25 26 23 22 24 21 19 19 20 22 24 25 26 24 24 20 19 19
28 27 25 25 24 22 20 18 17 17 17 17 17 19 19 20 21 21 22 23 23 24 26 23 25 25 24 22 21 23 24 27 28 27 25 24 21 21
30 29 27 26 28 29 26 24 21 24 23 21 18 17 18 19 21 23 23 21 20 22 28 26 27 27 25 24 26 27 28 26 25 28 29 26 23 22
33 31 29 29 31 33 31 27 25 30 28 24 22 21 22 24 25 26 23 21 22 22 26 26 28 31 29 29 28 29 30 30 29 28 29 29 26 25
35 34 33 34 34 34 33 30 29 31 30 29 29 29 29 31 31 28 26 25 24 26 28 28 28 32 31 31 30 31 31 31 33 33 30 27 27 26
41 38 38 37 38 38 34 34 34 32 30 31 32 34 36 36 35 33 31 30 27 28 30 30 32 33 33 34 34 33 33 34 34 35 32 29 27 26
47 44 42 41 41 40 38 37 36 35 35 35 36 37 39 39 38 38 35 34 31 30 32 32 33 35 35 38 37 38 38 38 39 39 43 34 28 27
53 51 46 40 40 41 42 41 41 40 39 40 41 42 44 45 43 41 38 37 34 35 37 35 35 37 38 40 41 42 41 42 41 44 41 36 32 30
49 49 46 44 43 44 44 45 45 41 41 42 42 42 42 43 43 43 43 41 38 38 39 40 40 42 43 42 43 45 43 43 45 48 51 41 35 32
42 44 42 42 43 45 45 45 44 45 44 43 43 41 40 40 40 43 45 44 42 43 44 44 43 44 45 44 45 43 40 43 47 48 43 40 37 35
39 38 39 37 38 41 42 42 44 44 43 43 43 41 42 40 41 42 43 45 46 46 48 47 47 43 49 49 43 39 44 45 48 48 43 43 39 38
39 39 38 36 37 38 38 36 35 34 36 37 36 38 41 43 43 44 44 46 48 50 50 50 49 53 52 46 45 43 46 48 50 43 42 39 42 42
45 43 42 40 38 39 41 40 37 34 34 36 36 36 38 39 40 43 44 49 51 52 55 57 54 53 49 46 48 48 46 48 48 46 44 44 46 45
47 44 44 44 42 44 44 44 41 41 40 41 38 37 40 43 44 46 48 51 47 59 59 52 43 45 43 46 46 49 49 47 48 47 48 48 47 47

GFSNE_500_spd_072.txt.gz
Wind_Speed
12 12 11 11 10 12 17 16 14 12 11 9 8 7 8 8 8 4 3 4 6 9 12 14 16 17 19 21 24 26 26 24 23 24 26 28 31 34
13 13 10 8 9 11 14 14 13 11 10 8 6 6 7 7 5 3 1 2 5 9 11 11 13 14 16 20 22 26 28 27 23 23 24 26 29 32
14 13 12 10 9 9 10 12 12 11 10 9 8 7 8 8 6 5 6 6 6 8 10 12 13 12 13 17 19 24 27 28 25 22 23 24 26 29
16 16 14 13 12 11 11 11 11 11 11 11 10 10 10 9 9 9 9 11 10 10 11 12 14 13 12 14 17 20 25 26 24 22 22 23 24 27
14 17 17 16 15 14 14 13 14 14 14 14 14 13 12 11 12 12 13 14 14 12 12 13 15 13 11 12 14 18 22 25 25 23 20 21 21 24
12 14 16 17 17 16 16 17 16 17 17 17 17 17 18 18 17 16 18 18 18 18 16 15 15 15 12 12 13 17 20 23 26 24 22 21 21 23
12 11 13 14 16 18 19 19 19 20 20 20 21 21 21 22 21 21 20 22 24 21 20 18 17 14 15 13 13 16 18 22 25 25 23 21 21 21
15 13 12 11 12 14 16 18 19 21 23 23 25 26 27 26 25 24 23 23 24 28 23 22 21 18 17 14 16 15 17 19 22 24 25 22 20 19
18 17 16 15 14 13 13 13 15 18 20 22 23 25 26 26 24 25 24 24 25 27 25 22 25 20 19 17 18 18 17 18 21 21 23 23 19 18
21 20 21 21 20 18 18 16 16 15 18 20 20 22 21 19 18 18 19 22 21 23 23 23 23 23 21 20 18 18 18 20 21 22 21 23 22 19
26 26 24 24 24 25 23 21 20 20 21 19 15 14 14 15 17 17 19 18 19 20 21 23 24 23 23 22 22 21 20 19 19 20 21 21 23 21
29 28 28 26 27 29 28 27 24 26 27 23 21 19 17 19 21 21 23 19 17 18 25 24 25 24 25 22 25 25 25 24 24 23 22 22 23 24
34 33 30 28 30 31 32 29 26 30 32 27 25 24 25 25 26 25 25 24 23 23 25 25 28 28 28 28 25 26 26 26 27 26 26 24 24 25
36 35 34 34 33 34 34 30 29 31 30 28 27 28 30 30 30 29 29 30 29 27 29 30 30 32 32 32 30 32 28 30 29 28 27 28 30 27
40 39 38 37 37 37 37 33 33 32 30 29 29 30 33 33 33 32 32 31 30 32 33 35 35 36 36 34 33 35 33 31 35 33 32 32 33 31
44 45 44 41 38 37 39 38 36 34 33 32 32 32 34 37 37 38 38 38 36 35 35 37 38 40 39 38 38 38 41 38 34 36 37 37 36 33
43 44 46 44 41 39 39 39 39 39 38 36 36 36 37 40 39 40 40 39 39 39 38 39 38 41 40 40 40 42 43 40 40 40 42 40 39 36
40 37 37 37 40 42 41 42 42 42 40 39 38 38 39 40 40 39 39 38 37 38 39 40 41 38 41 42 41 41 42 42 43 40 40 39 40 37
37 34 35 35 35 38 41 41 41 42 43 40 38 37 38 39 40 40 39 37 38 38 37 38 39 40 41 43 46 45 46 44 46 41 40 38 38 41
40 35 33 32 33 36 38 39 39 40 36 36 37 37 37 36 37 38 38 38 37 37 37 38 38 42 45 47 49 48 46 51 50 44 41 40 42 46
45 42 39 34 32 36 39 38 37 36 35 33 32 32 32 32 33 33 33 33 34 35 35 35 35 40 36 46 55 58 53 51 49 44 45 44 46 48
54 52 45 43 39 39 40 39 39 37 37 37 37 34 33 34 34 36 35 35 35 38 39 41 41 43 44 43 40 41 45 48 47 44 43 47 50 50
51 44 49 49 46 46 45 45 44 43 41 41 41 40 41 40 41 41 41 42 42 41 42 44 40 42 40 40 40 40 39 39 43 44 48 51 51 52

GFSNE_500_spd_075.txt.gz
Wind_Speed
11 11 9 9 9 16 18 14 11 9 10 9 9 9 10 8 6 2 1 4 6 8 12 14 15 14 14 17 21 24 25 26 25 24 26 26 28 31
10 11 10 7 9 12 16 15 13 11 10 8 8 9 10 9 7 5 5 5 9 10 12 14 15 15 14 15 18 21 24 26 26 24 24 25 27 29
12 12 11 10 9 9 11 13 13 13 11 9 8 8 10 10 10 8 9 10 8 12 12 15 15 15 14 13 15 19 22 25 28 27 24 23 24 27
13 13 12 11 10 11 12 11 11 12 12 11 10 10 9 11 12 11 14 14 15 13 13 15 17 16 14 13 14 16 20 23 25 25 23 22 22 23
15 15 14 13 12 12 11 11 12 12 12 13 13 12 12 12 14 14 16 17 19 19 14 15 17 18 15 14 15 14 18 19 20 24 21 20 19 20
14 14 14 15 14 14 14 13 14 14 15 16 16 17 17 17 18 18 18 20 20 24 24 17 13 17 18 13 14 14 16 17 18 21 22 19 17 17
12 13 15 15 16 16 17 17 17 17 17 19 19 20 21 20 21 20 20 21 23 24 25 25 16 13 15 17 14 15 14 16 17 19 21 22 19 15
12 11 10 10 13 15 16 17 18 20 21 21 22 23 24 24 24 22 23 23 23 29 26 25 24 19 12 15 15 16 15 16 16 18 19 21 22 18
17 16 14 13 13 13 14 13 13 15 18 20 21 24 24 25 23 23 21 21 22 23 22 22 23 25 18 19 17 16 17 18 18 18 19 20 21 21
22 21 19 18 18 18 18 17 17 15 16 16 17 20 18 19 18 17 18 20 19 20 20 21 22 23 21 19 22 19 19 19 19 19 20 21 23 24
25 25 23 23 23 23 23 22 23 21 22 21 17 16 15 15 15 16 19 18 19 21 21 21 23 23 23 21 24 26 24 23 22 23 23 22 21 21
30 29 28 27 28 29 27 28 25 27 28 25 21 20 19 19 22 21 22 21 19 18 24 23 25 26 24 23 22 26 28 27 27 28 28 26 23 22
35 33 32 32 32 32 31 29 26 30 29 27 24 22 24 26 26 26 25 24 24 23 26 26 28 30 31 30 31 25 25 29 32 31 30 30 28 28
39 38 38 39 37 37 36 31 30 31 30 27 25 25 26 27 29 28 27 27 28 26 27 29 29 32 33 32 33 36 28 30 30 34 34 36 33 33
43 41 42 42 41 40 39 37 35 33 30 29 29 28 30 30 30 31 31 28 27 29 31 32 33 35 35 35 35 35 34 31 31 32 35 33 34 36
44 43 44 46 45 42 39 39 40 38 35 33 32 33 34 34 33 33 33 33 33 31 30 31 32 34 34 35 34 34 36 32 31 28 31 39 34 36
42 44 46 45 44 43 42 41 42 42 41 38 37 35 36 36 34 35 35 35 35 34 35 37 34 32 31 34 33 33 34 34 36 33 30 37 39 40
37 37 36 39 40 40 41 44 45 44 44 44 42 38 36 37 36 36 36 36 37 36 36 37 37 33 31 33 34 35 36 36 38 40 36 36 39 41
42 39 35 30 31 34 37 38 39 42 46 47 45 41 40 40 40 38 39 38 37 35 35 36 36 37 34 31 34 33 35 36 41 47 44 42 44 40
44 41 37 36 37 38 38 39 39 41 43 44 45 43 41 40 39 36 34 31 29 28 28 29 31 31 31 30 31 34 33 37 41 45 46 41 36 37
52 50 44 41 41 42 39 37 37 39 40 41 42 43 41 39 36 31 30 31 30 28 27 29 33 33 35 36 34 35 39 32 36 39 35 35 34 36
55 53 51 50 49 46 44 43 42 41 41 40 40 41 39 37 35 35 33 33 33 34 33 33 37 38 36 39 41 42 42 37 35 33 36 41 44 42
61 57 55 56 54 50 50 48 49 46 44 45 43 43 44 44 42 42 41 41 38 39 39 38 39 39 39 41 46 47 47 43 39 38 39 42 43 43

GFSNE_500_spd_078.txt.gz
Wind_Speed
11 11 11 12 8 15 16 12 7 5 4 6 6 7 8 8 8 6 5 5 9 12 15 17 18 18 17 16 18 21 25 26 22 23 23 24 26 25
10 10 9 8 9 13 15 13 12 11 10 8 7 7 10 11 10 10 8 7 10 12 14 16 17 19 18 17 17 19 22 24 23 21 21 20 23 23
10 11 11 11 9 10 11 12 13 13 9 8 9 9 11 12 13 13 13 11 10 12 14 17 18 18 18 17 17 18 19 22 24 22 20 18 19 20
12 13 13 12 12 11 11 12 13 13 13 12 10 11 12 13 15 15 16 16 15 12 14 16 17 20 17 17 17 17 18 20 22 24 21 19 17 17
12 12 12 13 13 14 13 13 14 13 14 14 14 14 14 14 14 17 17 18 21 21 18 17 16 18 21 15 15 15 15 17 18 21 22 22 19 16
12 13 14 14 13 13 14 15 16 16 17 16 16 16 17 18 16 19 19 19 21 25 26 21 19 17 18 21 15 16 16 17 18 19 23 24 22 19
13 14 14 15 15 15 15 15 15 16 17 17 17 18 19 18 21 19 19 20 23 26 24 25 22 18 17 21 19 15 16 16 16 18 21 23 23 22
14 13 13 13 14 15 16 16 16 17 19 19 19 20 21 20 21 20 20 20 20 27 24 21 20 18 14 18 22 19 17 17 17 16 18 19 20 21
18 16 14 14 13 12 13 13 13 14 16 16 17 20 19 20 18 18 18 18 18 19 17 17 18 19 18 16 21 19 20 19 19 19 20 20 21 21
22 20 20 20 18 17 17 16 16 16 17 17 16 16 12 14 13 13 16 17 17 17 16 16 19 18 17 18 19 20 21 23 23 23 22 23 23 24
27 26 26 25 24 24 22 20 20 21 21 21 19 18 17 17 17 15 18 17 17 18 20 15 16 18 21 19 19 22 24 25 24 26 26 26 25 23
32 31 31 29 31 30 26 25 22 24 24 25 22 23 22 23 23 22 23 21 21 18 25 20 19 21 21 24 24 23 25 26 27 26 26 27 28 27
38 36 35 35 35 34 32 29 24 29 28 26 24 25 25 26 27 28 27 27 25 23 26 23 23 25 25 24 28 28 26 25 29 27 28 28 28 28
44 43 42 41 40 39 37 34 33 33 32 28 26 25 28 30 30 28 27 28 28 26 28 28 24 28 29 29 30 30 26 23 27 26 25 28 25 28
49 48 48 47 46 44 42 41 39 38 36 33 29 29 31 33 33 32 31 29 27 26 27 30 31 32 32 32 31 33 33 26 23 27 23 24 25 26
50 51 50 50 49 48 46 44 43 41 41 38 34 33 35 36 36 37 35 34 33 29 30 31 33 33 33 34 33 32 32 30 27 27 26 26 30 30
47 49 49 49 49 50 49 47 46 45 45 44 43 40 39 39 38 39 38 38 37 35 34 35 36 35 33 32 33 35 33 31 33 31 29 30 34 38
49 46 44 48 45 43 45 47 48 47 47 47 48 46 45 43 41 40 41 41 39 38 37 38 38 38 34 29 31 32 31 31 32 31 28 30 33 37
54 50 52 53 45 37 34 38 42 42 44 45 45 46 47 48 47 45 44 44 43 41 40 41 40 36 30 24 25 27 26 27 30 29 32 33 33 32
49 53 57 56 40 39 35 36 37 38 39 41 41 43 44 42 44 45 44 45 45 44 42 40 36 34 30 25 24 25 28 28 28 29 35 33 30 29
58 53 50 53 49 44 43 44 43 42 41 44 43 40 42 43 43 42 43 43 43 43 41 38 37 37 32 27 25 28 31 33 32 33 38 38 33 31
61 56 51 50 54 49 48 47 48 45 46 46 46 42 38 38 40 41 42 41 40 39 38 39 40 43 31 26 30 32 33 35 37 37 43 46 42 38
65 62 55 50 54 54 54 55 53 51 49 49 50 51 48 45 40 39 40 42 43 44 43 43 42 44 43 37 37 38 40 40 41 41 44 44 43 40

GFSNE_500_spd_081.txt.gz
Wind_Speed
7 8 8 6 9 12 13 13 7 5 6 4 4 5 7 6 6 5 6 9 11 14 16 17 19 19 18 17 17 17 20 24 22 21 19 19 21 21
6 8 6 5 7 13 14 14 13 12 9 8 7 10 9 8 9 8 9 10 11 14 16 17 19 20 18 18 17 17 17 19 20 21 20 18 17 18
7 9 10 9 8 9 12 15 13 10 10 10 12 11 9 12 12 12 11 12 14 15 17 18 18 21 22 18 19 16 16 17 18 19 20 20 18 15
10 10 11 11 9 11 12 12 13 14 13 12 10 11 14 13 14 16 15 15 15 17 17 19 21 20 23 21 18 18 16 17 17 18 19 20 18 17
12 12 13 13 13 12 11 13 15 14 14 15 15 15 16 17 16 17 17 18 16 19 18 19 20 21 21 25 22 18 18 15 17 18 18 20 19 18
12 14 14 14 14 14 15 15 15 15 17 17 18 17 17 18 18 19 20 20 20 21 21 21 20 20 18 20 21 17 18 17 17 17 18 18 19 18
13 13 15 16 16 17 17 17 17 17 18 19 20 20 21 21 22 21 20 21 22 23 22 21 17 16 12 15 19 18 19 17 17 17 16 17 17 19
14 14 14 16 17 18 19 19 18 19 19 19 20 21 23 21 21 19 18 19 20 23 18 17 11 14 15 15 18 16 16 18 19 19 19 20 20 19
18 17 16 17 17 17 19 19 19 19 18 18 18 19 17 18 15 16 16 16 17 19 13 15 14 16 14 13 14 18 16 16 18 18 19 21 21 21
24 23 21 21 22 20 20 18 18 17 17 15 16 16 13 14 12 12 13 13 15 18 12 12 18 17 15 15 16 19 20 18 17 19 19 18 19 20
28 28 27 26 26 25 23 22 22 21 21 20 19 19 18 17 17 16 19 17 18 22 21 14 17 18 19 20 22 20 22 24 25 23 21 20 18 19
32 31 31 31 32 31 28 28 24 26 25 22 21 21 21 22 24 23 25 24 23 24 27 20 22 21 22 22 21 25 27 27 28 29 26 25 22 20
37 34 34 36 36 36 35 32 29 33 31 27 23 23 25 26 27 29 28 26 24 24 31 25 26 25 22 22 27 28 27 29 30 30 29 26 24 24
41 41 40 41 41 40 39 37 36 36 35 32 29 27 29 30 32 32 33 31 29 26 30 29 26 28 26 26 29 31 30 28 29 31 30 29 28 26
45 45 46 45 45 43 42 42 41 40 40 39 37 34 34 34 35 36 36 35 33 30 30 33 32 33 33 32 31 34 34 33 29 28 28 26 28 30
51 51 50 50 49 48 46 45 46 47 46 45 43 42 41 39 39 40 40 40 36 31 33 35 36 38 36 35 33 34 38 34 30 26 25 26 27 27
45 52 55 54 51 51 51 50 50 50 50 49 50 50 47 44 41 42 42 43 41 38 38 39 39 39 38 36 36 38 39 37 32 27 24 24 26 25
42 42 46 47 47 48 50 52 53 52 51 54 54 53 51 50 47 46 46 46 45 43 43 43 42 41 40 39 40 40 39 34 33 29 25 21 21 19
46 45 45 46 47 47 47 47 50 50 51 52 54 52 51 51 51 50 47 46 47 47 47 46 46 45 43 39 40 38 36 35 30 28 28 26 21 23
53 49 49 46 48 51 53 49 48 45 54 50 51 50 49 48 47 45 44 42 40 43 44 45 46 46 45 40 35 31 35 35 34 30 31 28 25 24
57 56 55 50 50 53 51 53 58 53 49 48 47 46 44 49 49 40 39 41 42 42 42 41 44 43 41 39 36 34 38 40 33 32 34 32 29 29
66 62 60 54 53 53 52 51 49 45 49 51 54 53 50 48 47 42 40 40 43 42 41 41 42 42 41 39 37 40 45 34 31 34 36 35 35 35
72 71 68 66 61 57 55 56 55 51 49 52 52 52 51 49 48 50 50 50 47 45 43 42 44 44 48 45 43 40 41 39 37 38 40 39 42 46

GFSNE_500_spd_084.txt.gz
Wind_Speed
10 8 6 4 10 14 14 10 8 5 5 5 6 8 10 9 8 9 10 11 12 14 16 18 18 19 18 18 18 18 18 17 17 16 16 15 15 16
10 10 7 6 8 14 16 15 12 10 9 9 11 11 8 11 12 11 11 13 14 16 18 20 20 21 20 18 17 17 17 17 16 16 16 15 13 13
12 12 10 10 10 11 14 15 14 12 10 12 13 10 10 14 13 14 13 16 17 18 20 23 24 23 23 22 17 17 17 17 17 16 16 15 14 12
14 14 12 11 11 11 13 14 16 16 15 16 16 14 16 13 11 15 15 18 18 20 20 23 25 25 24 22 19 16 15 16 16 16 17 17 15 13
15 15 15 14 13 14 14 14 17 18 17 17 17 17 18 15 15 17 19 18 18 19 22 23 22 23 23 21 20 16 16 15 16 16 16 16 15 16
17 17 17 17 17 16 17 17 17 17 18 18 20 20 19 19 17 20 19 20 23 24 23 23 22 21 15 16 18 17 16 16 16 16 17 17 17 17
19 19 19 20 19 19 20 20 18 18 19 20 21 22 23 21 19 18 18 21 23 24 23 23 18 16 12 13 16 14 14 15 15 16 16 17 18 19
20 19 19 21 22 23 23 22 21 21 21 21 21 22 24 21 19 19 19 19 21 22 18 18 11 16 14 15 16 16 13 15 15 15 16 18 18 18
22 21 21 21 22 23 24 24 23 24 25 24 23 24 23 21 14 16 16 17 18 19 15 19 13 16 18 18 17 19 19 17 19 20 20 19 20 19
26 25 23 24 24 24 23 22 22 22 23 21 20 22 18 18 14 13 16 17 19 20 14 14 19 19 21 20 21 21 22 23 23 23 23 23 23 22
31 29 29 28 28 27 25 24 23 22 23 22 22 21 20 20 21 20 22 21 23 25 23 17 21 22 23 26 25 26 26 24 26 27 28 28 27 27
35 34 34 33 34 33 29 29 25 26 28 26 24 24 24 24 26 25 27 27 26 25 31 24 25 23 23 26 28 28 27 27 28 30 31 29 27 27
39 37 37 37 36 36 35 32 29 32 31 29 28 26 26 28 29 29 30 29 28 27 32 27 25 26 23 23 27 29 29 29 31 32 35 35 33 29
42 41 41 42 41 40 40 37 36 36 36 34 32 31 31 33 36 35 34 35 34 30 33 33 28 29 28 26 27 28 27 30 31 34 34 35 33 32
45 44 45 46 45 46 45 43 43 41 41 41 39 37 36 37 39 39 40 40 39 36 34 37 34 34 34 32 31 32 32 33 33 33 34 33 33 30
48 49 47 47 47 48 49 49 48 47 47 47 45 44 43 43 43 43 44 44 43 39 38 38 39 39 37 36 35 33 36 34 33 33 34 34 33 31
44 46 45 42 44 49 52 52 53 53 53 51 51 49 49 48 47 49 49 48 47 44 42 42 43 42 40 38 37 38 39 37 36 34 34 34 33 30
50 47 45 49 50 47 48 51 56 57 57 56 55 53 52 53 53 53 51 51 50 49 48 49 49 47 43 41 42 43 42 39 39 37 32 30 30 26
53 52 51 52 52 52 49 48 51 60 59 54 51 54 55 54 54 54 54 52 53 53 52 53 52 51 47 42 46 45 41 40 40 38 33 28 29 30
57 55 52 52 54 55 52 48 46 49 53 53 53 52 53 51 49 50 52 51 53 55 51 51 52 50 47 44 43 42 40 40 38 37 37 36 35 33
65 63 60 58 56 56 54 53 52 53 54 52 51 51 53 51 53 52 47 48 53 49 45 46 50 53 48 46 40 38 41 41 39 39 41 40 44 39
71 70 68 67 64 61 60 56 56 57 57 55 56 52 53 58 58 52 49 51 55 55 49 41 49 53 51 48 44 42 43 44 43 43 47 48 43 34
78 76 74 73 71 69 67 65 62 59 59 62 59 58 55 53 50 51 53 55 56 55 53 55 45 47 52 50 47 47 46 45 47 43 45 42 37 37

GFSNE_500_spd_087.txt.gz
Wind_Speed
11 8 6 6 13 18 17 13 11 9 8 8 9 9 9 9 12 11 12 14 16 17 19 20 21 20 21 20 19 18 18 18 17 15 16 16 16 17
12 12 10 8 10 17 20 18 15 12 11 12 12 13 11 13 12 12 13 15 16 18 20 21 23 24 24 23 20 18 17 17 17 16 16 17 16 16
15 15 14 13 11 14 18 19 17 14 14 14 15 13 12 15 13 14 15 17 19 20 22 22 23 26 26 26 20 17 15 16 16 16 16 16 16 16
17 18 16 15 15 14 17 19 18 16 15 16 16 16 14 15 12 15 18 18 19 19 20 22 24 24 26 24 20 15 15 15 15 15 17 16 16 16
19 20 18 17 18 16 15 17 18 19 19 18 18 16 17 17 15 16 18 19 19 22 22 21 22 22 21 19 18 17 17 15 15 16 16 16 17 18
21 21 21 21 20 20 18 19 19 19 19 19 19 20 19 18 17 19 22 22 25 26 23 21 20 19 14 16 18 17 17 18 18 18 17 17 18 18
21 22 23 23 23 23 22 21 20 19 19 21 22 22 21 21 20 20 20 23 24 24 24 22 18 15 12 14 17 18 14 17 18 18 18 19 20 19
24 23 24 25 26 25 24 23 22 21 22 22 23 23 24 22 19 18 20 20 20 23 17 22 15 15 13 15 17 16 17 18 19 20 21 22 22 22
26 25 24 26 27 27 27 26 24 24 23 23 21 22 22 23 19 18 15 15 17 21 15 19 16 14 16 20 19 18 19 20 21 19 21 24 25 25
29 29 28 27 28 27 27 27 27 27 26 25 23 24 20 18 15 14 16 19 20 23 21 16 21 21 21 21 22 22 22 23 24 22 23 24 26 27
33 33 32 31 32 31 28 27 26 25 26 25 22 21 20 19 19 18 21 23 24 27 28 24 22 21 24 26 25 26 26 26 25 25 25 25 25 28
37 36 37 36 36 35 31 29 26 26 30 27 24 22 22 22 24 24 25 25 24 23 29 27 27 24 23 27 27 25 27 27 26 27 26 27 27 28
38 39 39 39 39 40 38 34 32 33 34 32 29 27 26 27 29 31 31 27 26 25 30 29 28 29 27 23 27 30 29 29 28 29 28 29 30 30
40 41 42 41 40 41 41 39 38 38 38 38 35 33 33 34 37 37 36 35 33 30 32 31 29 33 31 29 27 31 33 31 31 32 33 31 31 31
46 46 45 44 44 45 45 44 44 43 43 42 41 39 39 40 41 41 42 42 42 38 37 37 35 35 34 32 31 31 33 34 33 33 34 33 32 32
37 49 49 47 47 47 50 51 49 49 48 47 46 46 46 46 46 46 47 47 48 43 42 43 44 42 39 36 36 34 36 34 38 37 35 34 35 35
38 36 43 43 46 49 52 52 54 52 52 52 52 52 52 52 50 51 52 52 52 49 46 47 47 49 46 41 40 40 41 40 42 41 39 37 39 38
46 47 45 46 47 47 50 51 52 52 51 52 53 55 55 54 53 55 56 56 56 54 52 50 51 51 50 47 48 46 46 45 46 45 41 39 39 40
51 52 52 53 53 53 53 53 53 57 58 57 54 51 54 55 56 56 58 58 56 55 55 54 54 54 53 48 49 52 49 48 48 45 44 41 38 38
58 57 57 56 56 60 61 61 62 61 60 59 58 56 54 54 55 56 55 55 53 52 51 51 51 55 55 51 48 48 52 48 47 47 47 42 39 37
66 65 65 63 63 62 62 62 63 63 63 64 63 61 58 56 53 51 52 53 52 51 49 51 52 52 50 45 42 45 53 52 49 49 48 46 42 40
72 73 72 71 71 69 69 68 67 65 63 63 63 61 61 60 59 56 54 53 54 54 53 56 53 53 53 52 51 50 46 53 53 51 49 48 47 43
76 77 77 77 77 76 75 75 75 72 69 69 69 66 64 63 61 62 59 58 56 53 54 52 52 54 56 47 57 60 56 55 56 54 55 54 49 48

GFSNE_500_spd_093.txt.gz
Wind_Speed
13 11 7 9 14 17 18 16 14 12 12 11 11 10 10 8 8 8 10 11 13 14 15 17 20 21 21 20 16 15 13 12 12 13 15 15 17 19
13 13 12 10 12 14 19 19 17 14 13 12 11 11 10 9 10 10 10 11 11 12 15 17 18 19 19 17 14 15 14 14 14 14 15 16 17 18
14 14 14 13 12 14 17 21 19 17 15 14 13 12 11 10 10 10 11 12 11 12 15 16 16 18 16 13 12 13 13 14 15 16 17 18 18 19
16 16 16 15 15 15 16 18 20 20 18 16 15 14 13 11 12 13 12 13 13 15 17 17 16 16 13 11 11 13 13 13 14 16 16 17 18 20
17 18 18 17 17 17 16 16 18 19 19 18 17 17 17 16 14 13 12 13 15 16 16 16 14 13 11 10 10 13 13 14 15 16 16 17 18 19
19 20 19 20 20 19 19 18 18 19 18 19 20 20 20 19 15 11 13 13 16 18 16 13 11 11 11 11 10 12 13 13 15 16 17 18 19 20
21 22 22 22 22 22 21 21 20 21 20 19 19 19 21 20 16 14 13 14 18 19 15 8 7 7 7 8 10 12 14 14 15 16 17 17 18 20
24 25 25 25 26 25 25 24 23 23 23 23 22 22 22 21 18 16 15 15 17 22 11 11 5 8 7 9 10 12 13 15 17 18 17 17 16 17
28 28 27 27 26 27 26 26 26 26 25 25 24 25 24 25 21 20 18 18 18 19 14 13 10 9 10 13 13 15 15 16 17 19 19 19 18 18
31 32 31 30 29 27 27 27 27 27 27 27 27 27 27 28 27 24 23 22 20 19 15 14 19 16 14 16 16 16 18 19 19 19 19 20 20 20
35 37 35 35 34 31 30 29 30 30 30 28 28 28 29 29 29 26 25 24 23 23 20 16 19 15 16 19 19 18 19 20 21 22 22 21 21 21
41 40 43 39 38 37 35 34 34 33 32 32 31 29 29 29 29 27 26 26 26 24 28 23 19 22 16 21 22 24 22 22 23 24 24 24 24 24
45 45 46 43 50 43 39 37 38 36 36 36 34 33 32 32 32 32 32 31 30 28 30 30 26 26 27 21 25 28 29 29 29 29 27 26 26 26
48 54 49 47 45 50 47 44 44 41 39 39 38 38 38 37 38 37 37 36 36 33 33 34 31 31 31 29 28 29 32 33 33 34 34 32 31 30
37 34 31 35 45 48 50 55 50 48 46 43 41 41 41 41 42 43 42 42 40 39 39 38 39 37 36 33 32 32 34 37 37 38 38 39 37 33
41 42 34 34 32 28 35 49 51 50 49 49 47 45 46 46 46 47 45 46 46 44 44 44 45 45 43 41 39 36 36 39 41 43 42 41 42 39
37 38 39 40 41 39 37 36 40 51 50 47 46 49 52 52 50 50 49 50 50 48 47 49 50 49 50 48 45 45 43 41 43 43 43 41 42 42
44 43 42 42 43 45 47 46 46 46 50 46 46 43 42 49 55 56 53 53 52 50 50 49 51 52 51 48 50 50 48 48 45 46 43 40 38 41
51 51 50 50 49 49 49 51 52 54 53 54 52 51 50 49 45 46 50 51 52 52 51 50 51 53 53 50 48 48 47 49 51 47 42 40 39 40
58 59 60 59 58 57 56 56 57 56 58 57 59 61 60 59 57 55 53 53 53 53 53 51 50 53 58 55 51 47 50 48 48 46 42 42 39 38
62 64 65 66 68 67 66 66 64 63 62 63 62 63 65 63 65 66 65 63 63 60 61 59 56 56 57 57 56 50 51 52 49 48 46 45 45 44
67 68 68 69 70 72 73 73 72 70 70 69 69 69 69 69 69 69 68 68 68 67 66 66 63 62 61 63 60 55 51 54 52 50 50 50 47 41
67 68 68 70 71 72 73 74 76 77 78 77 76 76 76 75 75 75 74 74 76 73 72 70 68 67 67 65 66 62 56 54 56 55 52 53 51 46

GFSNE_500_spd_096.txt.gz
Wind_Speed
11 10 8 8 14 15 18 19 16 15 14 13 13 12 11 10 10 10 10 10 12 13 14 17 19 19 17 15 14 16 16 16 15 16 16 17 18 19
13 13 12 10 11 13 16 20 19 17 15 13 13 13 12 11 9 10 10 10 10 12 14 16 17 17 16 13 14 15 14 15 17 17 18 19 19 20
14 14 14 14 13 13 15 18 21 20 17 14 13 12 11 10 10 11 12 12 12 12 15 15 15 14 13 10 11 13 12 13 15 17 18 19 21 20
15 15 15 14 15 15 14 16 18 21 21 19 17 15 14 14 12 13 12 12 12 14 15 15 13 12 12 10 8 11 12 11 13 15 15 16 18 19
16 15 15 16 15 16 17 15 16 18 20 20 21 20 19 19 17 15 13 11 14 15 14 14 13 10 10 11 8 9 11 10 12 14 15 15 16 18
18 18 18 18 17 18 19 19 18 18 17 18 19 21 20 21 17 14 13 13 15 17 16 11 10 8 9 9 10 9 12 12 12 14 15 17 17 17
21 22 21 21 20 19 20 20 20 20 20 20 20 20 22 21 19 17 14 15 18 19 17 10 6 5 6 10 13 12 11 12 13 14 14 15 16 18
25 22 23 23 21 22 23 23 23 23 22 22 22 23 24 24 22 20 17 17 18 22 15 14 6 6 7 11 13 15 15 14 14 15 16 15 15 16
29 27 26 25 23 22 23 24 25 26 27 26 25 26 25 27 25 24 21 21 21 24 22 16 11 9 11 13 13 15 15 15 15 15 17 17 17 18
30 29 29 28 25 27 28 28 28 28 28 28 27 28 28 27 27 26 26 25 24 25 24 20 19 15 14 13 13 12 14 16 16 17 17 18 18 20
32 32 31 31 31 31 32 33 32 32 31 31 31 30 30 29 28 27 28 27 26 26 27 22 24 22 18 19 18 17 16 16 17 19 21 21 21 21
38 37 35 33 33 34 35 34 34 36 36 36 34 33 33 32 32 30 29 28 26 23 30 29 27 26 24 25 25 25 23 23 22 22 22 21 22 23
42 41 39 40 41 42 41 40 39 42 42 39 38 38 37 35 35 34 32 31 29 26 30 30 31 32 31 28 27 29 32 31 30 29 28 27 26 25
32 38 42 46 45 43 44 49 51 45 41 45 42 40 42 42 40 38 38 37 36 33 35 36 35 37 36 35 32 32 32 35 38 37 36 34 32 31
30 31 40 44 45 48 45 47 48 47 48 47 49 49 45 46 45 44 43 41 41 41 39 41 41 41 41 39 37 36 35 36 40 42 43 41 38 39
30 32 37 38 36 40 41 39 38 48 49 50 49 49 54 52 50 50 50 48 46 45 46 45 47 47 45 43 42 40 40 40 40 44 46 45 44 41
37 37 37 39 42 42 46 46 43 42 42 41 42 45 49 51 53 52 51 51 52 49 47 48 50 50 50 49 47 46 45 42 41 41 44 45 41 44
45 45 44 45 45 45 45 45 47 46 46 47 48 47 47 47 49 50 49 46 44 45 49 51 52 53 53 49 51 49 47 45 42 41 40 41 38 38
52 51 53 53 54 53 53 52 52 53 52 51 53 53 54 55 54 55 54 55 52 50 47 47 50 52 54 53 47 55 53 48 48 47 46 43 38 37
63 62 61 61 59 61 61 60 60 60 60 61 60 60 59 60 59 58 59 61 59 58 58 57 56 54 55 54 53 48 52 52 51 50 47 48 44 39
67 68 66 63 65 67 68 69 69 69 68 67 67 67 67 68 66 65 66 65 65 64 61 62 64 63 63 62 61 57 52 53 54 54 51 51 47 45
67 69 68 69 68 69 70 72 72 72 73 74 76 75 74 73 74 74 73 72 72 73 72 69 68 68 66 68 66 66 61 57 58 59 58 55 54 49
64 64 65 68 68 69 70 71 73 74 76 77 77 79 81 81 82 81 79 80 81 79 79 78 77 76 74 74 72 71 70 65 63 62 62 61 60 56